Wetterdaten: Freitag, 23.12.2022
Datum Zeit Temp. Aussen Temp. o. S. Temp +5cm Feuchte Auss Luftdruck Regen Sonnenschein Regendauer Solar Windben Empfang
23.12.2022 00:00 9,8 C 8,9 C 7,2 C 98 % 1003,9 hPa 0,0 l/m 0 min 0 min 0 W/m 6,4 km/h (2 Bft) 95,74 %
23.12.2022 00:02 9,8 C 8,9 C 7,2 C 98 % 1003,8 hPa 0,0 l/m 0 min 0 min 0 W/m 16,1 km/h (3 Bft) 86,36 %
23.12.2022 00:04 9,8 C 8,9 C 7,2 C 98 % 1003,8 hPa 0,0 l/m 0 min 0 min 0 W/m 9,7 km/h (2 Bft) 87,23 %
23.12.2022 00:08 9,8 C 8,9 C 7,2 C 98 % 1003,8 hPa 0,0 l/m 0 min 0 min 0 W/m 6,4 km/h (2 Bft) 97,56 %
23.12.2022 00:10 9,8 C 8,9 C 7,2 C 98 % 1003,8 hPa 0,0 l/m 0 min 0 min 0 W/m 16,1 km/h (3 Bft) 87,23 %
23.12.2022 00:12 9,8 C 8,9 C 7,2 C 98 % 1003,8 hPa 0,0 l/m 0 min 0 min 0 W/m 12,9 km/h (3 Bft) 100,00 %
23.12.2022 00:14 9,7 C 8,9 C 7,2 C 98 % 1003,8 hPa 0,0 l/m 0 min 0 min 0 W/m 12,9 km/h (3 Bft) 93,62 %
23.12.2022 00:16 9,8 C 8,9 C 7,2 C 98 % 1003,9 hPa 0,0 l/m 0 min 0 min 0 W/m 6,4 km/h (2 Bft) 82,86 %
23.12.2022 00:18 9,7 C 8,9 C 7,2 C 98 % 1003,8 hPa 0,0 l/m 0 min 0 min 0 W/m 3,2 km/h (1 Bft) 85,11 %
23.12.2022 00:20 9,7 C 8,9 C 7,2 C 98 % 1003,8 hPa 0,0 l/m 0 min 0 min 0 W/m 6,4 km/h (2 Bft) 93,62 %
23.12.2022 00:22 9,7 C 8,9 C 7,2 C 98 % 1003,9 hPa 0,0 l/m 0 min 0 min 0 W/m 3,2 km/h (1 Bft) 95,74 %
23.12.2022 00:24 9,7 C 8,9 C 6,7 C 98 % 1003,8 hPa 0,0 l/m 0 min 0 min 0 W/m 12,9 km/h (3 Bft) 97,87 %
23.12.2022 00:26 9,7 C 8,9 C 7,2 C 98 % 1003,9 hPa 0,0 l/m 0 min 0 min 0 W/m 16,1 km/h (3 Bft) 89,13 %
23.12.2022 00:28 9,7 C 8,9 C 6,7 C 98 % 1003,9 hPa 0,0 l/m 0 min 0 min 0 W/m 6,4 km/h (2 Bft) 93,62 %
23.12.2022 00:30 9,6 C 8,9 C 6,7 C 98 % 1003,9 hPa 0,0 l/m 0 min 0 min 0 W/m 9,7 km/h (2 Bft) 85,11 %
23.12.2022 00:32 9,6 C 8,9 C 6,7 C 98 % 1003,9 hPa 0,0 l/m 0 min 0 min 0 W/m 3,2 km/h (1 Bft) 93,62 %
23.12.2022 00:34 9,6 C 8,9 C 6,7 C 98 % 1003,9 hPa 0,0 l/m 0 min 0 min 0 W/m 6,4 km/h (2 Bft) 89,36 %
23.12.2022 00:36 9,6 C 8,9 C 6,7 C 98 % 1003,9 hPa 0,0 l/m 0 min 0 min 0 W/m 6,4 km/h (2 Bft) 87,23 %
23.12.2022 00:38 9,6 C 8,9 C 6,7 C 98 % 1003,8 hPa 0,0 l/m 0 min 0 min 0 W/m 6,4 km/h (2 Bft) 93,48 %
23.12.2022 00:40 9,6 C 8,9 C 6,7 C 98 % 1003,9 hPa 0,0 l/m 0 min 0 min 0 W/m 3,2 km/h (1 Bft) 93,62 %
23.12.2022 00:42 9,6 C 8,9 C 6,7 C 98 % 1003,9 hPa 0,0 l/m 0 min 0 min 0 W/m 9,7 km/h (2 Bft) 89,36 %
23.12.2022 00:44 9,6 C 8,9 C 6,7 C 98 % 1003,9 hPa 0,0 l/m 0 min 0 min 0 W/m 9,7 km/h (2 Bft) 93,62 %
23.12.2022 00:46 9,6 C 8,9 C 6,7 C 98 % 1003,9 hPa 0,0 l/m 0 min 0 min 0 W/m 6,4 km/h (2 Bft) 93,62 %
23.12.2022 00:48 9,6 C 8,9 C 6,7 C 98 % 1003,9 hPa 0,0 l/m 0 min 0 min 0 W/m 6,4 km/h (2 Bft) 95,74 %
23.12.2022 00:50 9,6 C 8,9 C 6,7 C 98 % 1003,9 hPa 0,0 l/m 0 min 0 min 0 W/m 3,2 km/h (1 Bft) 86,96 %
23.12.2022 00:52 9,6 C 8,9 C 6,7 C 98 % 1004,0 hPa 0,0 l/m 0 min 0 min 0 W/m 6,4 km/h (2 Bft) 91,49 %
23.12.2022 00:54 9,6 C 8,9 C 6,7 C 98 % 1004,0 hPa 0,0 l/m 0 min 0 min 0 W/m 3,2 km/h (1 Bft) 91,49 %
23.12.2022 00:56 9,6 C 8,9 C 6,7 C 98 % 1003,9 hPa 0,0 l/m 0 min 0 min 0 W/m 19,3 km/h (3 Bft) 93,62 %
23.12.2022 00:58 9,6 C 8,9 C 6,7 C 98 % 1004,0 hPa 0,0 l/m 0 min 0 min 0 W/m 9,7 km/h (2 Bft) 95,74 %
23.12.2022 01:00 9,6 C 8,9 C 6,7 C 98 % 1004,0 hPa 0,0 l/m 0 min 0 min 0 W/m 6,4 km/h (2 Bft) 91,49 %
23.12.2022 01:02 9,6 C 8,9 C 6,7 C 98 % 1003,9 hPa 0,0 l/m 0 min 0 min 0 W/m 9,7 km/h (2 Bft) 89,36 %
23.12.2022 01:04 9,6 C 8,9 C 6,7 C 98 % 1004,0 hPa 0,0 l/m 0 min 0 min 0 W/m 12,9 km/h (3 Bft) 93,48 %
23.12.2022 01:06 9,6 C 8,9 C 7,2 C 98 % 1003,9 hPa 0,0 l/m 0 min 0 min 0 W/m 6,4 km/h (2 Bft) 96,61 %
23.12.2022 01:08 9,6 C 8,9 C 7,2 C 98 % 1003,9 hPa 0,0 l/m 0 min 0 min 0 W/m 12,9 km/h (3 Bft) 100,00 %
23.12.2022 01:10 9,6 C 8,9 C 7,2 C 98 % 1003,9 hPa 0,0 l/m 0 min 0 min 0 W/m 12,9 km/h (3 Bft) 95,74 %
23.12.2022 01:12 9,6 C 8,9 C 7,2 C 98 % 1003,9 hPa 0,0 l/m 0 min 0 min 0 W/m 6,4 km/h (2 Bft) 97,87 %
23.12.2022 01:14 9,6 C 8,9 C 7,2 C 98 % 1004,0 hPa 0,0 l/m 0 min 0 min 0 W/m 6,4 km/h (2 Bft) 97,87 %
23.12.2022 01:16 9,6 C 8,9 C 7,2 C 98 % 1003,9 hPa 0,0 l/m 0 min 0 min 0 W/m 19,3 km/h (3 Bft) 97,83 %
23.12.2022 01:18 9,6 C 8,9 C 7,2 C 98 % 1003,9 hPa 0,0 l/m 0 min 0 min 0 W/m 12,9 km/h (3 Bft) 93,62 %
23.12.2022 01:20 9,6 C 8,9 C 7,2 C 98 % 1003,9 hPa 0,0 l/m 0 min 0 min 0 W/m 16,1 km/h (3 Bft) 93,62 %
23.12.2022 01:22 9,6 C 8,9 C 7,2 C 98 % 1003,8 hPa 0,0 l/m 0 min 0 min 0 W/m 12,9 km/h (3 Bft) 97,87 %
23.12.2022 01:24 9,6 C 8,9 C 7,2 C 98 % 1003,9 hPa 0,0 l/m 0 min 0 min 0 W/m 12,9 km/h (3 Bft) 97,87 %
23.12.2022 01:26 9,6 C 8,9 C 7,2 C 98 % 1003,9 hPa 0,0 l/m 0 min 0 min 0 W/m 6,4 km/h (2 Bft) 97,87 %
23.12.2022 01:28 9,6 C 8,9 C 7,2 C 98 % 1003,9 hPa 0,0 l/m 0 min 0 min 0 W/m 12,9 km/h (3 Bft) 95,65 %
23.12.2022 01:30 9,6 C 8,9 C 7,2 C 98 % 1004,0 hPa 0,0 l/m 0 min 0 min 0 W/m 12,9 km/h (3 Bft) 97,87 %
23.12.2022 01:32 9,6 C 8,9 C 7,2 C 98 % 1004,0 hPa 0,0 l/m 0 min 0 min 0 W/m 19,3 km/h (3 Bft) 95,74 %
23.12.2022 01:34 9,6 C 8,9 C 7,2 C 98 % 1004,0 hPa 0,0 l/m 0 min 0 min 0 W/m 16,1 km/h (3 Bft) 97,87 %
23.12.2022 01:36 9,6 C 8,9 C 7,2 C 98 % 1004,1 hPa 0,0 l/m 0 min 0 min 0 W/m 12,9 km/h (3 Bft) 97,87 %
23.12.2022 01:38 9,7 C 8,9 C 7,2 C 98 % 1004,0 hPa 0,0 l/m 0 min 0 min 0 W/m 12,9 km/h (3 Bft) 97,87 %
23.12.2022 01:40 9,7 C 8,9 C 7,2 C 98 % 1004,0 hPa 0,0 l/m 0 min 0 min 0 W/m 12,9 km/h (3 Bft) 95,74 %
23.12.2022 01:42 9,7 C 8,9 C 7,2 C 98 % 1004,0 hPa 0,0 l/m 0 min 0 min 0 W/m 12,9 km/h (3 Bft) 100,00 %
23.12.2022 01:44 9,7 C 8,9 C 7,2 C 98 % 1004,0 hPa 0,0 l/m 0 min 0 min 0 W/m 19,3 km/h (3 Bft) 100,00 %
23.12.2022 01:46 9,7 C 8,9 C 7,2 C 98 % 1004,0 hPa 0,0 l/m 0 min 0 min 0 W/m 12,9 km/h (3 Bft) 95,74 %
23.12.2022 01:48 9,7 C 8,9 C 7,2 C 98 % 1004,1 hPa 0,0 l/m 0 min 0 min 0 W/m 6,4 km/h (2 Bft) 100,00 %
23.12.2022 01:50 9,7 C 8,9 C 7,2 C 98 % 1004,1 hPa 0,0 l/m 0 min 0 min 0 W/m 16,1 km/h (3 Bft) 100,00 %
23.12.2022 01:52 9,7 C 8,9 C 7,2 C 98 % 1004,0 hPa 0,0 l/m 0 min 0 min 0 W/m 9,7 km/h (2 Bft) 97,87 %
23.12.2022 01:54 9,7 C 8,9 C 7,2 C 98 % 1004,1 hPa 0,0 l/m 0 min 0 min 0 W/m 9,7 km/h (2 Bft) 97,83 %
23.12.2022 01:56 9,7 C 8,9 C 7,2 C 98 % 1004,1 hPa 0,0 l/m 0 min 0 min 0 W/m 6,4 km/h (2 Bft) 100,00 %
23.12.2022 01:58 9,7 C 8,9 C 7,2 C 98 % 1004,1 hPa 0,0 l/m 0 min 0 min 0 W/m 6,4 km/h (2 Bft) 97,87 %
23.12.2022 02:00 9,7 C 8,9 C 7,2 C 98 % 1004,2 hPa 0,0 l/m 0 min 0 min 0 W/m 12,9 km/h (3 Bft) 100,00 %
23.12.2022 02:02 9,7 C 8,9 C 7,2 C 98 % 1004,1 hPa 0,0 l/m 0 min 0 min 0 W/m 12,9 km/h (3 Bft) 100,00 %
23.12.2022 02:04 9,7 C 8,9 C 7,2 C 98 % 1004,2 hPa 0,0 l/m 0 min 0 min 0 W/m 16,1 km/h (3 Bft) 97,87 %
23.12.2022 02:06 9,7 C 8,9 C 7,2 C 98 % 1004,2 hPa 0,0 l/m 0 min 0 min 0 W/m 12,9 km/h (3 Bft) 100,00 %
23.12.2022 02:08 9,7 C 8,9 C 7,2 C 98 % 1004,1 hPa 0,0 l/m 0 min 0 min 0 W/m 9,7 km/h (2 Bft) 100,00 %
23.12.2022 02:10 9,7 C 8,9 C 7,2 C 98 % 1004,2 hPa 0,0 l/m 0 min 0 min 0 W/m 12,9 km/h (3 Bft) 97,87 %
23.12.2022 02:12 9,7 C 8,9 C 7,2 C 98 % 1004,3 hPa 0,0 l/m 0 min 0 min 0 W/m 9,7 km/h (2 Bft) 97,87 %
23.12.2022 02:14 9,7 C 8,9 C 7,2 C 98 % 1004,3 hPa 0,0 l/m 0 min 0 min 0 W/m 16,1 km/h (3 Bft) 100,00 %
23.12.2022 02:16 9,7 C 8,9 C 7,2 C 98 % 1004,4 hPa 0,0 l/m 0 min 0 min 0 W/m 12,9 km/h (3 Bft) 97,87 %
23.12.2022 02:18 9,7 C 8,9 C 7,2 C 98 % 1004,4 hPa 0,0 l/m 0 min 0 min 0 W/m 22,5 km/h (4 Bft) 100,00 %
23.12.2022 02:20 9,7 C 8,9 C 7,2 C 98 % 1004,4 hPa 0,0 l/m 0 min 0 min 0 W/m 12,9 km/h (3 Bft) 100,00 %
23.12.2022 02:22 9,7 C 8,9 C 7,2 C 98 % 1004,3 hPa 0,0 l/m 0 min 0 min 0 W/m 12,9 km/h (3 Bft) 97,87 %
23.12.2022 02:24 9,8 C 9,4 C 7,2 C 98 % 1004,4 hPa 0,0 l/m 0 min 0 min 0 W/m 12,9 km/h (3 Bft) 97,87 %
23.12.2022 02:26 9,8 C 9,4 C 7,2 C 98 % 1004,4 hPa 0,0 l/m 0 min 0 min 0 W/m 12,9 km/h (3 Bft) 100,00 %
23.12.2022 02:28 9,8 C 9,4 C 7,2 C 98 % 1004,5 hPa 0,0 l/m 0 min 0 min 0 W/m 12,9 km/h (3 Bft) 95,74 %
23.12.2022 02:30 9,8 C 9,4 C 7,2 C 98 % 1004,4 hPa 0,0 l/m 0 min 0 min 0 W/m 9,7 km/h (2 Bft) 97,87 %
23.12.2022 02:32 9,8 C 9,4 C 7,2 C 98 % 1004,5 hPa 0,0 l/m 0 min 0 min 0 W/m 12,9 km/h (3 Bft) 93,48 %
23.12.2022 02:34 9,8 C 9,4 C 7,2 C 98 % 1004,5 hPa 0,0 l/m 0 min 0 min 0 W/m 16,1 km/h (3 Bft) 100,00 %
23.12.2022 02:36 9,8 C 9,4 C 7,2 C 98 % 1004,5 hPa 0,0 l/m 0 min 0 min 0 W/m 9,7 km/h (2 Bft) 100,00 %
23.12.2022 02:38 9,8 C 9,4 C 7,2 C 98 % 1004,5 hPa 0,0 l/m 0 min 0 min 0 W/m 9,7 km/h (2 Bft) 97,87 %
23.12.2022 02:40 9,8 C 9,4 C 7,2 C 98 % 1004,5 hPa 0,0 l/m 0 min 0 min 0 W/m 12,9 km/h (3 Bft) 95,74 %
23.12.2022 02:42 9,8 C 9,4 C 7,2 C 98 % 1004,5 hPa 0,0 l/m 0 min 0 min 0 W/m 12,9 km/h (3 Bft) 97,87 %
23.12.2022 02:44 9,8 C 9,4 C 7,2 C 98 % 1004,5 hPa 0,0 l/m 0 min 0 min 0 W/m 12,9 km/h (3 Bft) 100,00 %
23.12.2022 02:46 9,8 C 9,4 C 7,2 C 98 % 1004,6 hPa 0,0 l/m 0 min 0 min 0 W/m 16,1 km/h (3 Bft) 97,83 %
23.12.2022 02:48 9,8 C 9,4 C 7,2 C 98 % 1004,5 hPa 0,0 l/m 0 min 0 min 0 W/m 12,9 km/h (3 Bft) 100,00 %
23.12.2022 02:50 9,8 C 9,4 C 7,2 C 98 % 1004,5 hPa 0,0 l/m 0 min 0 min 0 W/m 6,4 km/h (2 Bft) 100,00 %
23.12.2022 02:52 9,8 C 8,9 C 7,2 C 98 % 1004,5 hPa 0,0 l/m 0 min 0 min 0 W/m 12,9 km/h (3 Bft) 95,74 %
23.12.2022 02:54 9,8 C 9,4 C 7,2 C 98 % 1004,5 hPa 0,0 l/m 0 min 0 min 0 W/m 12,9 km/h (3 Bft) 97,87 %
23.12.2022 02:56 9,8 C 8,9 C 7,2 C 98 % 1004,5 hPa 0,0 l/m 0 min 0 min 0 W/m 12,9 km/h (3 Bft) 97,87 %
23.12.2022 02:58 9,8 C 8,9 C 7,2 C 98 % 1004,5 hPa 0,0 l/m 0 min 0 min 0 W/m 9,7 km/h (2 Bft) 95,65 %
23.12.2022 03:00 9,8 C 8,9 C 7,2 C 98 % 1004,5 hPa 0,0 l/m 0 min 0 min 0 W/m 12,9 km/h (3 Bft) 93,62 %
23.12.2022 03:02 9,8 C 8,9 C 7,2 C 98 % 1004,6 hPa 0,0 l/m 0 min 0 min 0 W/m 9,7 km/h (2 Bft) 95,74 %
23.12.2022 03:04 9,8 C 8,9 C 7,2 C 98 % 1004,5 hPa 0,0 l/m 0 min 0 min 0 W/m 12,9 km/h (3 Bft) 96,00 %
23.12.2022 03:06 9,8 C 8,9 C 7,2 C 98 % 1004,6 hPa 0,0 l/m 0 min 0 min 0 W/m 6,4 km/h (2 Bft) 94,83 %
23.12.2022 03:08 9,8 C 8,9 C 7,2 C 98 % 1004,6 hPa 0,0 l/m 0 min 0 min 0 W/m 16,1 km/h (3 Bft) 94,44 %
23.12.2022 03:10 9,8 C 8,9 C 7,2 C 98 % 1004,6 hPa 0,0 l/m 0 min 0 min 0 W/m 16,1 km/h (3 Bft) 95,65 %
23.12.2022 03:12 9,8 C 8,9 C 7,2 C 98 % 1004,6 hPa 0,0 l/m 0 min 0 min 0 W/m 6,4 km/h (2 Bft) 93,62 %
23.12.2022 03:14 9,8 C 8,9 C 7,2 C 98 % 1004,6 hPa 0,0 l/m 0 min 0 min 0 W/m 9,7 km/h (2 Bft) 95,74 %
23.12.2022 03:16 9,8 C 9,4 C 7,2 C 98 % 1004,6 hPa 0,0 l/m 0 min 0 min 0 W/m 9,7 km/h (2 Bft) 91,49 %
23.12.2022 03:18 9,8 C 9,4 C 7,2 C 98 % 1004,6 hPa 0,0 l/m 0 min 0 min 0 W/m 12,9 km/h (3 Bft) 93,62 %
23.12.2022 03:20 9,8 C 9,4 C 7,2 C 98 % 1004,7 hPa 0,0 l/m 0 min 0 min 0 W/m 16,1 km/h (3 Bft) 89,36 %
23.12.2022 03:22 9,8 C 9,4 C 7,2 C 98 % 1004,7 hPa 0,0 l/m 0 min 0 min 0 W/m 9,7 km/h (2 Bft) 93,48 %
23.12.2022 03:24 9,8 C 9,4 C 7,2 C 98 % 1004,8 hPa 0,0 l/m 0 min 0 min 0 W/m 9,7 km/h (2 Bft) 93,62 %
23.12.2022 03:26 9,8 C 9,4 C 7,2 C 98 % 1004,8 hPa 0,0 l/m 0 min 0 min 0 W/m 9,7 km/h (2 Bft) 91,49 %
23.12.2022 03:28 9,8 C 9,4 C 7,2 C 98 % 1004,9 hPa 0,0 l/m 0 min 0 min 0 W/m 22,5 km/h (4 Bft) 93,62 %
23.12.2022 03:30 9,8 C 9,4 C 7,2 C 98 % 1005,0 hPa 0,0 l/m 0 min 0 min 0 W/m 16,1 km/h (3 Bft) 93,62 %
23.12.2022 03:32 9,8 C 9,4 C 7,2 C 98 % 1005,0 hPa 0,0 l/m 0 min 0 min 0 W/m 19,3 km/h (3 Bft) 95,74 %
23.12.2022 03:34 9,9 C 9,4 C 7,2 C 98 % 1005,0 hPa 0,0 l/m 0 min 0 min 0 W/m 12,9 km/h (3 Bft) 93,48 %
23.12.2022 03:36 9,8 C 9,4 C 7,2 C 98 % 1005,0 hPa 0,0 l/m 0 min 0 min 0 W/m 12,9 km/h (3 Bft) 51,11 %
23.12.2022 03:38 9,8 C 9,4 C 7,2 C 98 % 1005,1 hPa 0,0 l/m 0 min 0 min 0 W/m 12,9 km/h (3 Bft) 95,56 %
23.12.2022 03:40 9,8 C 9,4 C 7,2 C 98 % 1005,1 hPa 0,0 l/m 0 min 0 min 0 W/m 6,4 km/h (2 Bft) 97,87 %
23.12.2022 03:42 9,8 C 9,4 C 7,2 C 98 % 1005,1 hPa 0,0 l/m 0 min 0 min 0 W/m 22,5 km/h (4 Bft) 97,87 %
23.12.2022 03:44 9,8 C 9,4 C 7,2 C 98 % 1005,1 hPa 0,0 l/m 0 min 0 min 0 W/m 12,9 km/h (3 Bft) 95,74 %
23.12.2022 03:46 9,8 C 9,4 C 7,2 C 98 % 1005,1 hPa 0,0 l/m 0 min 0 min 0 W/m 16,1 km/h (3 Bft) 97,83 %
23.12.2022 03:48 9,8 C 9,4 C 7,2 C 98 % 1005,1 hPa 0,0 l/m 0 min 0 min 0 W/m 6,4 km/h (2 Bft) 97,87 %
23.12.2022 03:50 9,8 C 9,4 C 7,2 C 98 % 1005,1 hPa 0,0 l/m 0 min 0 min 0 W/m 12,9 km/h (3 Bft) 97,87 %
23.12.2022 03:52 9,9 C 9,4 C 7,2 C 98 % 1005,0 hPa 0,0 l/m 0 min 0 min 0 W/m 19,3 km/h (3 Bft) 97,87 %
23.12.2022 03:54 9,9 C 9,4 C 7,2 C 98 % 1005,0 hPa 0,0 l/m 0 min 0 min 0 W/m 16,1 km/h (3 Bft) 97,87 %
23.12.2022 03:56 9,8 C 8,9 C 7,2 C 98 % 1005,1 hPa 0,0 l/m 0 min 0 min 0 W/m 6,4 km/h (2 Bft) 93,62 %
23.12.2022 03:58 9,8 C 8,9 C 7,2 C 98 % 1005,2 hPa 0,0 l/m 0 min 0 min 0 W/m 12,9 km/h (3 Bft) 97,87 %
23.12.2022 04:00 9,8 C 8,9 C 7,2 C 98 % 1005,1 hPa 0,0 l/m 0 min 0 min 0 W/m 6,4 km/h (2 Bft) 97,83 %
23.12.2022 04:05 9,8 C 9,4 C 7,2 C 98 % 1005,3 hPa 0,0 l/m 0 min 0 min 0 W/m 9,7 km/h (2 Bft) 100,00 %
23.12.2022 04:06 9,8 C 9,4 C 7,2 C 98 % 1005,4 hPa 0,0 l/m 0 min 0 min 0 W/m 9,7 km/h (2 Bft) 95,83 %
23.12.2022 04:08 9,8 C 9,4 C 7,2 C 98 % 1005,4 hPa 0,0 l/m 0 min 0 min 0 W/m 6,4 km/h (2 Bft) 100,00 %
23.12.2022 04:10 9,8 C 9,4 C 7,2 C 98 % 1005,4 hPa 0,0 l/m 0 min 0 min 0 W/m 12,9 km/h (3 Bft) 95,74 %
23.12.2022 04:12 9,8 C 9,4 C 7,2 C 98 % 1005,6 hPa 0,0 l/m 0 min 0 min 0 W/m 16,1 km/h (3 Bft) 95,65 %
23.12.2022 04:14 9,8 C 9,4 C 7,2 C 98 % 1005,6 hPa 0,0 l/m 0 min 0 min 0 W/m 19,3 km/h (3 Bft) 100,00 %
23.12.2022 04:16 9,8 C 9,4 C 7,2 C 98 % 1005,7 hPa 0,0 l/m 0 min 0 min 0 W/m 9,7 km/h (2 Bft) 59,57 %
23.12.2022 04:18 9,9 C 9,4 C 7,2 C 98 % 1005,7 hPa 0,0 l/m 0 min 0 min 0 W/m 12,9 km/h (3 Bft) 17,02 %
23.12.2022 04:20 9,9 C 8,9 C 7,2 C 98 % 1005,7 hPa 0,0 l/m 0 min 0 min 0 W/m 9,7 km/h (2 Bft) 25,53 %
23.12.2022 04:22 9,8 C 8,9 C 7,2 C 98 % 1005,7 hPa 0,0 l/m 0 min 0 min 0 W/m 9,7 km/h (2 Bft) 34,04 %
23.12.2022 04:24 9,8 C 8,9 C 7,2 C 98 % 1005,7 hPa 0,0 l/m 0 min 2 min 0 W/m 12,9 km/h (3 Bft) 89,36 %
23.12.2022 04:26 9,8 C 8,9 C 7,2 C 98 % 1005,7 hPa 0,0 l/m 0 min 0 min 0 W/m 12,9 km/h (3 Bft) 91,30 %
23.12.2022 04:28 9,8 C 8,9 C 7,2 C 98 % 1005,6 hPa 0,0 l/m 0 min 0 min 0 W/m 9,7 km/h (2 Bft) 80,85 %
23.12.2022 04:30 9,8 C 8,9 C 7,2 C 98 % 1005,6 hPa 0,0 l/m 0 min 0 min 0 W/m 6,4 km/h (2 Bft) 87,23 %
23.12.2022 04:32 9,8 C 8,9 C 7,2 C 98 % 1005,5 hPa 0,0 l/m 0 min 0 min 0 W/m 3,2 km/h (1 Bft) 10,64 %
23.12.2022 04:34 9,8 C 8,9 C 7,2 C 98 % 1005,5 hPa 0,0 l/m 0 min 0 min 0 W/m 9,7 km/h (2 Bft) 90,91 %
23.12.2022 04:36 9,8 C 8,9 C 7,2 C 98 % 1005,5 hPa 0,0 l/m 0 min 0 min 0 W/m 6,4 km/h (2 Bft) 80,85 %
23.12.2022 04:38 9,8 C 8,9 C 7,2 C 98 % 1005,5 hPa 0,0 l/m 0 min 0 min 0 W/m 12,9 km/h (3 Bft) 93,48 %
23.12.2022 04:40 9,8 C 8,9 C 7,2 C 98 % 1005,6 hPa 0,0 l/m 0 min 0 min 0 W/m 9,7 km/h (2 Bft) 51,06 %
23.12.2022 04:42 9,8 C 8,9 C 7,2 C 98 % 1005,5 hPa 0,0 l/m 0 min 0 min 0 W/m 12,9 km/h (3 Bft) 34,04 %
23.12.2022 04:44 9,8 C 9,4 C 7,2 C 98 % 1005,5 hPa 0,0 l/m 0 min 0 min 0 W/m 12,9 km/h (3 Bft) 45,00 %
23.12.2022 04:46 9,8 C 8,9 C 7,2 C 98 % 1005,5 hPa 0,0 l/m 0 min 0 min 0 W/m 12,9 km/h (3 Bft) 36,17 %
23.12.2022 04:48 9,8 C 8,9 C 7,2 C 98 % 1005,6 hPa 0,0 l/m 0 min 0 min 0 W/m 3,2 km/h (1 Bft) 66,87 %
23.12.2022 04:50 9,8 C 8,9 C 7,2 C 98 % 1005,5 hPa 0,0 l/m 0 min 0 min 0 W/m 12,9 km/h (3 Bft) 97,30 %
23.12.2022 04:52 9,8 C 8,9 C 7,2 C 98 % 1005,5 hPa 0,0 l/m 0 min 0 min 0 W/m 12,9 km/h (3 Bft) 87,23 %
23.12.2022 04:54 9,8 C 8,9 C 7,2 C 98 % 1005,5 hPa 0,0 l/m 0 min 0 min 0 W/m 12,9 km/h (3 Bft) 91,49 %
23.12.2022 04:56 9,8 C 8,9 C 7,2 C 98 % 1005,5 hPa 0,0 l/m 0 min 0 min 0 W/m 6,4 km/h (2 Bft) 72,34 %
23.12.2022 04:58 9,8 C 8,9 C 7,2 C 98 % 1005,5 hPa 0,0 l/m 0 min 2 min 0 W/m 12,9 km/h (3 Bft) 21,28 %
23.12.2022 05:00 9,7 C 8,9 C 7,2 C 98 % 1005,5 hPa 0,0 l/m 0 min 0 min 0 W/m 6,4 km/h (2 Bft) 29,79 %
23.12.2022 05:02 9,7 C 8,9 C 7,2 C 98 % 1005,4 hPa 0,0 l/m 0 min 0 min 0 W/m 12,9 km/h (3 Bft) 14,89 %
23.12.2022 05:04 9,7 C 8,9 C 7,2 C 98 % 1005,5 hPa 0,0 l/m 0 min 0 min 0 W/m 12,9 km/h (3 Bft) 44,68 %
23.12.2022 05:06 9,7 C 8,9 C 7,2 C 98 % 1005,6 hPa 0,0 l/m 0 min 0 min 0 W/m 16,1 km/h (3 Bft) 55,17 %
23.12.2022 05:08 9,7 C 8,9 C 7,2 C 98 % 1005,6 hPa 0,0 l/m 0 min 0 min 0 W/m 16,1 km/h (3 Bft) 68,57 %
23.12.2022 05:10 9,7 C 8,9 C 7,2 C 98 % 1005,6 hPa 0,0 l/m 0 min 2 min 0 W/m 9,7 km/h (2 Bft) 57,45 %
23.12.2022 05:12 9,7 C 8,9 C 7,2 C 98 % 1005,6 hPa 0,0 l/m 0 min 2 min 0 W/m 16,1 km/h (3 Bft) 25,53 %
23.12.2022 05:14 9,7 C 8,9 C 7,2 C 98 % 1005,6 hPa 0,0 l/m 0 min 0 min 0 W/m 12,9 km/h (3 Bft) 27,66 %
23.12.2022 05:16 9,7 C 8,9 C 7,2 C 98 % 1005,5 hPa 0,0 l/m 0 min 0 min 0 W/m 6,4 km/h (2 Bft) 55,32 %
23.12.2022 05:18 9,7 C 8,9 C 7,2 C 98 % 1005,6 hPa 0,0 l/m 0 min 0 min 0 W/m 3,2 km/h (1 Bft) 53,19 %
23.12.2022 05:20 9,7 C 8,9 C 7,2 C 98 % 1005,5 hPa 0,0 l/m 0 min 2 min 0 W/m 16,1 km/h (3 Bft) 64,44 %
23.12.2022 05:22 9,7 C 8,9 C 7,2 C 98 % 1005,5 hPa 0,0 l/m 0 min 0 min 0 W/m 6,4 km/h (2 Bft) 40,00 %
23.12.2022 05:24 9,7 C 8,9 C 7,2 C 98 % 1005,6 hPa 0,0 l/m 0 min 0 min 0 W/m 12,9 km/h (3 Bft) 33,33 %
23.12.2022 05:26 9,7 C 8,9 C 7,2 C 98 % 1005,6 hPa 0,0 l/m 0 min 0 min 0 W/m 16,1 km/h (3 Bft) 93,62 %
23.12.2022 05:28 9,7 C 8,9 C 7,2 C 98 % 1005,7 hPa 0,0 l/m 0 min 0 min 0 W/m 16,1 km/h (3 Bft) 93,62 %
23.12.2022 05:30 9,7 C 8,9 C 7,2 C 98 % 1005,5 hPa 0,0 l/m 0 min 0 min 0 W/m 6,4 km/h (2 Bft) 89,36 %
23.12.2022 05:32 9,7 C 8,9 C 7,2 C 98 % 1005,6 hPa 0,0 l/m 0 min 0 min 0 W/m 3,2 km/h (1 Bft) 44,68 %
23.12.2022 05:34 9,6 C 8,9 C 7,2 C 98 % 1005,6 hPa 0,0 l/m 0 min 0 min 0 W/m 16,1 km/h (3 Bft) 65,22 %
23.12.2022 05:36 9,6 C 8,9 C 7,2 C 98 % 1005,6 hPa 0,0 l/m 0 min 0 min 0 W/m 6,4 km/h (2 Bft) 76,60 %
23.12.2022 05:38 9,6 C 8,9 C 7,2 C 98 % 1005,6 hPa 0,0 l/m 0 min 0 min 0 W/m 16,1 km/h (3 Bft) 91,49 %
23.12.2022 05:40 9,6 C 8,9 C 7,2 C 98 % 1005,7 hPa 0,0 l/m 0 min 0 min 0 W/m 16,1 km/h (3 Bft) 68,09 %
23.12.2022 05:42 9,6 C 8,9 C 7,2 C 98 % 1005,7 hPa 0,0 l/m 0 min 0 min 0 W/m 6,4 km/h (2 Bft) 85,11 %
23.12.2022 05:44 9,6 C 8,9 C 7,2 C 98 % 1005,7 hPa 0,0 l/m 0 min 0 min 0 W/m 6,4 km/h (2 Bft) 95,74 %
23.12.2022 05:46 9,6 C 8,9 C 7,2 C 98 % 1005,7 hPa 0,0 l/m 0 min 0 min 0 W/m 6,4 km/h (2 Bft) 97,83 %
23.12.2022 05:48 9,6 C 8,9 C 7,2 C 98 % 1005,7 hPa 0,0 l/m 0 min 0 min 0 W/m 6,4 km/h (2 Bft) 93,62 %
23.12.2022 05:50 9,6 C 8,9 C 7,2 C 98 % 1005,8 hPa 0,0 l/m 0 min 0 min 0 W/m 9,7 km/h (2 Bft) 95,74 %
23.12.2022 05:52 9,6 C 8,9 C 7,2 C 98 % 1005,8 hPa 0,0 l/m 0 min 0 min 0 W/m 12,9 km/h (3 Bft) 100,00 %
23.12.2022 05:54 9,6 C 8,9 C 7,2 C 98 % 1005,8 hPa 0,0 l/m 0 min 0 min 0 W/m 16,1 km/h (3 Bft) 93,62 %
23.12.2022 05:56 9,6 C 8,9 C 7,2 C 98 % 1005,8 hPa 0,0 l/m 0 min 0 min 0 W/m 6,4 km/h (2 Bft) 95,74 %
23.12.2022 05:58 9,6 C 8,9 C 7,2 C 98 % 1005,7 hPa 0,0 l/m 0 min 0 min 0 W/m 9,7 km/h (2 Bft) 93,62 %
23.12.2022 06:00 9,6 C 8,9 C 7,2 C 98 % 1005,8 hPa 0,0 l/m 0 min 0 min 0 W/m 12,9 km/h (3 Bft) 76,09 %
23.12.2022 06:02 9,6 C 8,9 C 7,2 C 98 % 1005,8 hPa 0,0 l/m 0 min 0 min 0 W/m 12,9 km/h (3 Bft) 93,62 %
23.12.2022 06:04 9,6 C 8,9 C 7,2 C 98 % 1005,8 hPa 0,0 l/m 0 min 0 min 0 W/m 6,4 km/h (2 Bft) 100,00 %
23.12.2022 06:08 9,6 C 8,9 C 7,2 C 98 % 1005,7 hPa 0,0 l/m 0 min 0 min 0 W/m 12,9 km/h (3 Bft) 100,00 %
23.12.2022 06:10 9,6 C 8,9 C 7,2 C 98 % 1005,8 hPa 0,0 l/m 0 min 0 min 0 W/m 12,9 km/h (3 Bft) 100,00 %
23.12.2022 06:12 9,6 C 8,9 C 7,2 C 98 % 1005,8 hPa 0,0 l/m 0 min 0 min 0 W/m 12,9 km/h (3 Bft) 97,83 %
23.12.2022 06:14 9,6 C 8,9 C 7,2 C 98 % 1005,8 hPa 0,0 l/m 0 min 0 min 0 W/m 12,9 km/h (3 Bft) 93,62 %
23.12.2022 06:16 9,6 C 8,9 C 7,2 C 98 % 1005,9 hPa 0,0 l/m 0 min 0 min 0 W/m 12,9 km/h (3 Bft) 97,87 %
23.12.2022 06:18 9,6 C 8,9 C 7,2 C 98 % 1005,8 hPa 0,0 l/m 0 min 0 min 0 W/m 16,1 km/h (3 Bft) 97,87 %
23.12.2022 06:20 9,6 C 8,9 C 7,2 C 98 % 1005,8 hPa 0,0 l/m 0 min 0 min 0 W/m 9,7 km/h (2 Bft) 97,87 %
23.12.2022 06:22 9,6 C 8,9 C 7,2 C 98 % 1005,7 hPa 0,0 l/m 0 min 0 min 0 W/m 12,9 km/h (3 Bft) 97,87 %
23.12.2022 06:24 9,6 C 8,9 C 7,2 C 98 % 1005,7 hPa 0,0 l/m 0 min 0 min 0 W/m 12,9 km/h (3 Bft) 97,87 %
23.12.2022 06:26 9,6 C 8,9 C 7,2 C 98 % 1005,7 hPa 0,0 l/m 0 min 0 min 0 W/m 6,4 km/h (2 Bft) 97,83 %
23.12.2022 06:28 9,6 C 8,9 C 7,2 C 98 % 1005,7 hPa 0,0 l/m 0 min 0 min 0 W/m 6,4 km/h (2 Bft) 97,87 %
23.12.2022 06:30 9,6 C 8,9 C 7,2 C 98 % 1005,8 hPa 0,0 l/m 0 min 0 min 0 W/m 9,7 km/h (2 Bft) 95,74 %
23.12.2022 06:32 9,6 C 8,9 C 7,2 C 98 % 1005,8 hPa 0,0 l/m 0 min 0 min 0 W/m 6,4 km/h (2 Bft) 97,87 %
23.12.2022 06:34 9,6 C 8,9 C 7,2 C 98 % 1005,8 hPa 0,0 l/m 0 min 0 min 0 W/m 12,9 km/h (3 Bft) 95,74 %
23.12.2022 06:36 9,5 C 8,9 C 7,2 C 98 % 1005,7 hPa 0,0 l/m 0 min 0 min 0 W/m 12,9 km/h (3 Bft) 97,87 %
23.12.2022 06:38 9,5 C 8,9 C 7,2 C 98 % 1005,7 hPa 0,0 l/m 0 min 0 min 0 W/m 12,9 km/h (3 Bft) 93,62 %
23.12.2022 06:40 9,5 C 8,9 C 7,2 C 98 % 1005,8 hPa 0,0 l/m 0 min 0 min 0 W/m 6,4 km/h (2 Bft) 97,87 %
23.12.2022 06:42 9,5 C 8,9 C 7,2 C 98 % 1005,8 hPa 0,0 l/m 0 min 0 min 0 W/m 19,3 km/h (3 Bft) 95,74 %
23.12.2022 06:44 9,5 C 8,9 C 7,2 C 98 % 1005,9 hPa 0,0 l/m 0 min 0 min 0 W/m 12,9 km/h (3 Bft) 92,68 %
23.12.2022 06:46 9,5 C 8,9 C 7,2 C 98 % 1006,0 hPa 0,0 l/m 0 min 0 min 0 W/m 12,9 km/h (3 Bft) 96,08 %
23.12.2022 06:48 9,5 C 8,9 C 7,2 C 98 % 1005,9 hPa 0,0 l/m 0 min 0 min 0 W/m 9,7 km/h (2 Bft) 93,62 %
23.12.2022 06:50 9,5 C 8,9 C 7,2 C 98 % 1006,0 hPa 0,0 l/m 0 min 0 min 0 W/m 16,1 km/h (3 Bft) 93,62 %
23.12.2022 06:52 9,5 C 8,9 C 7,2 C 98 % 1006,2 hPa 0,0 l/m 0 min 0 min 0 W/m 12,9 km/h (3 Bft) 91,30 %
23.12.2022 06:54 9,5 C 8,9 C 7,2 C 98 % 1006,2 hPa 0,0 l/m 0 min 0 min 0 W/m 16,1 km/h (3 Bft) 93,62 %
23.12.2022 06:56 9,5 C 8,9 C 7,2 C 98 % 1006,2 hPa 0,0 l/m 0 min 0 min 0 W/m 9,7 km/h (2 Bft) 95,74 %
23.12.2022 06:58 9,5 C 8,9 C 7,2 C 98 % 1006,2 hPa 0,0 l/m 0 min 0 min 0 W/m 6,4 km/h (2 Bft) 95,74 %
23.12.2022 07:00 9,5 C 8,9 C 7,2 C 98 % 1006,2 hPa 0,0 l/m 0 min 0 min 0 W/m 9,7 km/h (2 Bft) 95,74 %
23.12.2022 07:02 9,5 C 8,9 C 7,2 C 98 % 1006,3 hPa 0,0 l/m 0 min 0 min 0 W/m 9,7 km/h (2 Bft) 93,62 %
23.12.2022 07:04 9,5 C 8,9 C 7,2 C 98 % 1006,3 hPa 0,0 l/m 0 min 0 min 0 W/m 19,3 km/h (3 Bft) 97,83 %
23.12.2022 07:06 9,5 C 8,9 C 7,2 C 98 % 1006,3 hPa 0,0 l/m 0 min 0 min 0 W/m 12,9 km/h (3 Bft) 47,73 %
23.12.2022 07:08 9,5 C 8,9 C 7,2 C 98 % 1006,3 hPa 0,0 l/m 0 min 0 min 0 W/m 12,9 km/h (3 Bft) 93,62 %
23.12.2022 07:10 9,5 C 8,9 C 7,2 C 98 % 1006,3 hPa 0,0 l/m 0 min 0 min 0 W/m 12,9 km/h (3 Bft) 97,87 %
23.12.2022 07:12 9,5 C 8,9 C 7,2 C 98 % 1006,4 hPa 0,0 l/m 0 min 0 min 0 W/m 12,9 km/h (3 Bft) 97,87 %
23.12.2022 07:14 9,5 C 8,9 C 7,2 C 98 % 1006,3 hPa 0,0 l/m 0 min 0 min 0 W/m 9,7 km/h (2 Bft) 95,74 %
23.12.2022 07:16 9,5 C 8,9 C 7,2 C 98 % 1006,3 hPa 0,0 l/m 0 min 0 min 0 W/m 16,1 km/h (3 Bft) 97,87 %
23.12.2022 07:18 9,5 C 8,9 C 7,2 C 98 % 1006,3 hPa 0,0 l/m 0 min 0 min 0 W/m 6,4 km/h (2 Bft) 91,30 %
23.12.2022 07:20 9,5 C 8,9 C 7,2 C 98 % 1006,2 hPa 0,0 l/m 0 min 0 min 0 W/m 6,4 km/h (2 Bft) 93,62 %
23.12.2022 07:22 9,5 C 8,9 C 7,2 C 98 % 1006,3 hPa 0,0 l/m 0 min 0 min 0 W/m 6,4 km/h (2 Bft) 97,87 %
23.12.2022 07:24 9,5 C 8,9 C 7,2 C 98 % 1006,3 hPa 0,0 l/m 0 min 0 min 0 W/m 12,9 km/h (3 Bft) 97,87 %
23.12.2022 07:26 9,4 C 8,9 C 7,2 C 98 % 1006,3 hPa 0,0 l/m 0 min 0 min 0 W/m 6,4 km/h (2 Bft) 97,87 %
23.12.2022 07:28 9,5 C 8,9 C 7,2 C 98 % 1006,3 hPa 0,0 l/m 0 min 0 min 0 W/m 9,7 km/h (2 Bft) 100,00 %
23.12.2022 07:30 9,4 C 8,9 C 7,2 C 98 % 1006,3 hPa 0,0 l/m 0 min 0 min 0 W/m 6,4 km/h (2 Bft) 100,00 %
23.12.2022 07:32 9,4 C 8,9 C 7,2 C 98 % 1006,3 hPa 0,0 l/m 0 min 0 min 0 W/m 6,4 km/h (2 Bft) 100,00 %
23.12.2022 07:34 9,4 C 8,9 C 7,2 C 98 % 1006,2 hPa 0,0 l/m 0 min 0 min 0 W/m 9,7 km/h (2 Bft) 97,87 %
23.12.2022 07:36 9,4 C 8,9 C 7,2 C 98 % 1006,2 hPa 0,0 l/m 0 min 0 min 0 W/m 9,7 km/h (2 Bft) 97,87 %
23.12.2022 07:38 9,4 C 8,9 C 7,2 C 98 % 1006,2 hPa 0,0 l/m 0 min 0 min 0 W/m 9,7 km/h (2 Bft) 100,00 %
23.12.2022 07:40 9,4 C 8,9 C 7,2 C 98 % 1006,1 hPa 0,0 l/m 0 min 0 min 0 W/m 6,4 km/h (2 Bft) 97,87 %
23.12.2022 07:42 9,4 C 8,9 C 7,2 C 98 % 1006,1 hPa 0,0 l/m 0 min 0 min 0 W/m 6,4 km/h (2 Bft) 97,83 %
23.12.2022 07:44 9,4 C 8,9 C 7,2 C 98 % 1006,1 hPa 0,0 l/m 0 min 0 min 0 W/m 6,4 km/h (2 Bft) 95,74 %
23.12.2022 07:46 9,4 C 8,9 C 7,2 C 98 % 1006,0 hPa 0,0 l/m 0 min 0 min 0 W/m 6,4 km/h (2 Bft) 93,62 %
23.12.2022 07:48 9,4 C 8,9 C 7,2 C 98 % 1006,0 hPa 0,0 l/m 0 min 0 min 0 W/m 6,4 km/h (2 Bft) 97,87 %
23.12.2022 07:50 9,4 C 8,9 C 7,2 C 98 % 1006,1 hPa 0,0 l/m 0 min 0 min 0 W/m 9,7 km/h (2 Bft) 97,87 %
23.12.2022 07:52 9,4 C 8,9 C 7,2 C 98 % 1006,1 hPa 0,0 l/m 0 min 0 min 0 W/m 12,9 km/h (3 Bft) 97,87 %
23.12.2022 07:54 9,4 C 8,9 C 7,2 C 98 % 1006,0 hPa 0,0 l/m 0 min 0 min 0 W/m 9,7 km/h (2 Bft) 97,87 %
23.12.2022 07:56 9,4 C 8,9 C 7,2 C 98 % 1006,0 hPa 0,0 l/m 0 min 0 min 0 W/m 12,9 km/h (3 Bft) 95,65 %
23.12.2022 07:58 9,4 C 8,9 C 7,2 C 98 % 1006,1 hPa 0,0 l/m 0 min 0 min 0 W/m 16,1 km/h (3 Bft) 87,23 %
23.12.2022 08:00 9,4 C 8,9 C 7,2 C 98 % 1006,0 hPa 0,0 l/m 0 min 0 min 0 W/m 9,7 km/h (2 Bft) 95,74 %
23.12.2022 08:02 9,4 C 8,9 C 7,2 C 98 % 1006,0 hPa 0,0 l/m 0 min 0 min 0 W/m 6,4 km/h (2 Bft) 89,36 %
23.12.2022 08:04 9,4 C 8,9 C 7,2 C 98 % 1006,0 hPa 0,0 l/m 0 min 0 min 0 W/m 6,4 km/h (2 Bft) 93,62 %
23.12.2022 08:06 9,4 C 8,9 C 7,2 C 98 % 1006,0 hPa 0,0 l/m 0 min 0 min 0 W/m 3,2 km/h (1 Bft) 93,62 %
23.12.2022 08:08 9,4 C 8,9 C 7,2 C 98 % 1006,1 hPa 0,0 l/m 0 min 0 min 0 W/m 6,4 km/h (2 Bft) 95,65 %
23.12.2022 08:10 9,4 C 8,9 C 7,2 C 98 % 1006,1 hPa 0,0 l/m 0 min 0 min 0 W/m 6,4 km/h (2 Bft) 93,62 %
23.12.2022 08:12 9,4 C 8,9 C 7,2 C 98 % 1006,3 hPa 0,0 l/m 0 min 0 min 0 W/m 3,2 km/h (1 Bft) 97,87 %
23.12.2022 08:14 9,4 C 8,9 C 7,2 C 98 % 1006,4 hPa 0,0 l/m 0 min 0 min 0 W/m 6,4 km/h (2 Bft) 95,74 %
23.12.2022 08:16 9,4 C 8,9 C 7,2 C 98 % 1006,5 hPa 0,0 l/m 0 min 0 min 0 W/m 6,4 km/h (2 Bft) 97,87 %
23.12.2022 08:18 9,4 C 8,9 C 6,7 C 98 % 1006,6 hPa 0,0 l/m 0 min 0 min 0 W/m 9,7 km/h (2 Bft) 97,87 %
23.12.2022 08:20 9,4 C 8,9 C 6,7 C 98 % 1006,7 hPa 0,0 l/m 0 min 0 min 0 W/m 9,7 km/h (2 Bft) 97,83 %
23.12.2022 08:22 9,4 C 8,9 C 6,7 C 98 % 1006,8 hPa 0,0 l/m 0 min 0 min 0 W/m 3,2 km/h (1 Bft) 97,87 %
23.12.2022 08:24 9,3 C 8,9 C 6,7 C 98 % 1006,8 hPa 0,0 l/m 0 min 0 min 0 W/m 3,2 km/h (1 Bft) 97,87 %
23.12.2022 08:26 9,3 C 8,9 C 6,7 C 98 % 1006,8 hPa 0,0 l/m 0 min 0 min 0 W/m 6,4 km/h (2 Bft) 97,87 %
23.12.2022 08:28 9,3 C 8,9 C 6,7 C 98 % 1006,9 hPa 0,0 l/m 0 min 0 min 0 W/m 6,4 km/h (2 Bft) 95,74 %
23.12.2022 08:30 9,3 C 8,9 C 7,2 C 98 % 1006,9 hPa 0,0 l/m 0 min 0 min 0 W/m 9,7 km/h (2 Bft) 97,87 %
23.12.2022 08:32 9,3 C 8,9 C 7,2 C 98 % 1006,9 hPa 0,0 l/m 0 min 0 min 0 W/m 6,4 km/h (2 Bft) 95,74 %
23.12.2022 08:34 9,3 C 8,9 C 7,2 C 98 % 1006,9 hPa 0,0 l/m 0 min 0 min 0 W/m 3,2 km/h (1 Bft) 100,00 %
23.12.2022 08:36 9,3 C 8,9 C 7,2 C 98 % 1006,8 hPa 0,0 l/m 0 min 0 min 0 W/m 9,7 km/h (2 Bft) 100,00 %
23.12.2022 08:38 9,3 C 8,9 C 7,2 C 98 % 1006,9 hPa 0,0 l/m 0 min 0 min 0 W/m 6,4 km/h (2 Bft) 95,74 %
23.12.2022 08:40 9,3 C 8,9 C 7,2 C 98 % 1006,9 hPa 0,0 l/m 0 min 0 min 0 W/m 3,2 km/h (1 Bft) 100,00 %
23.12.2022 08:42 9,3 C 8,9 C 7,2 C 98 % 1006,9 hPa 0,0 l/m 0 min 0 min 0 W/m 6,4 km/h (2 Bft) 95,74 %
23.12.2022 08:44 9,3 C 8,9 C 7,2 C 98 % 1006,9 hPa 0,0 l/m 0 min 0 min 0 W/m 3,2 km/h (1 Bft) 97,87 %
23.12.2022 08:46 9,3 C 8,9 C 7,2 C 98 % 1006,8 hPa 0,0 l/m 0 min 0 min 0 W/m 3,2 km/h (1 Bft) 97,92 %
23.12.2022 08:48 9,4 C 8,9 C 7,2 C 98 % 1006,8 hPa 0,0 l/m 0 min 0 min 0 W/m 6,4 km/h (2 Bft) 97,87 %
23.12.2022 08:50 9,4 C 8,9 C 7,2 C 98 % 1006,7 hPa 0,0 l/m 0 min 0 min 0 W/m 6,4 km/h (2 Bft) 97,87 %
23.12.2022 08:52 9,4 C 8,9 C 7,2 C 98 % 1006,7 hPa 0,0 l/m 0 min 0 min 4 W/m 6,4 km/h (2 Bft) 97,87 %
23.12.2022 08:54 9,4 C 8,9 C 7,2 C 98 % 1006,7 hPa 0,0 l/m 0 min 0 min 5 W/m 6,4 km/h (2 Bft) 95,74 %
23.12.2022 08:56 9,4 C 8,9 C 7,2 C 98 % 1006,6 hPa 0,0 l/m 0 min 0 min 5 W/m 6,4 km/h (2 Bft) 97,83 %
23.12.2022 08:58 9,4 C 8,9 C 7,2 C 98 % 1006,6 hPa 0,0 l/m 0 min 0 min 6 W/m 9,7 km/h (2 Bft) 95,74 %
23.12.2022 09:00 9,4 C 8,9 C 7,2 C 98 % 1006,7 hPa 0,0 l/m 0 min 0 min 7 W/m 6,4 km/h (2 Bft) 97,87 %
23.12.2022 09:02 9,4 C 8,9 C 7,2 C 98 % 1006,6 hPa 0,0 l/m 0 min 0 min 7 W/m 3,2 km/h (1 Bft) 97,87 %
23.12.2022 09:04 9,4 C 8,9 C 7,2 C 98 % 1006,6 hPa 0,0 l/m 0 min 0 min 8 W/m 6,4 km/h (2 Bft) 97,87 %
23.12.2022 09:06 9,4 C 8,9 C 7,2 C 98 % 1006,6 hPa 0,0 l/m 0 min 0 min 9 W/m 9,7 km/h (2 Bft) 95,74 %
23.12.2022 09:08 9,4 C 8,9 C 7,2 C 98 % 1006,6 hPa 0,0 l/m 0 min 0 min 9 W/m 12,9 km/h (3 Bft) 95,74 %
23.12.2022 09:10 9,4 C 8,9 C 7,2 C 98 % 1006,7 hPa 0,0 l/m 0 min 0 min 8 W/m 6,4 km/h (2 Bft) 93,48 %
23.12.2022 09:12 9,4 C 8,9 C 7,2 C 98 % 1006,7 hPa 0,0 l/m 0 min 0 min 7 W/m 12,9 km/h (3 Bft) 95,74 %
23.12.2022 09:14 9,4 C 8,9 C 7,2 C 98 % 1006,6 hPa 0,0 l/m 0 min 0 min 8 W/m 6,4 km/h (2 Bft) 95,74 %
23.12.2022 09:16 9,4 C 8,9 C 7,2 C 98 % 1006,7 hPa 0,0 l/m 0 min 0 min 9 W/m 9,7 km/h (2 Bft) 97,87 %
23.12.2022 09:18 9,4 C 8,9 C 7,2 C 98 % 1006,6 hPa 0,0 l/m 0 min 0 min 10 W/m 9,7 km/h (2 Bft) 97,87 %
23.12.2022 09:20 9,4 C 8,9 C 7,2 C 98 % 1006,6 hPa 0,0 l/m 0 min 0 min 11 W/m 19,3 km/h (3 Bft) 95,74 %
23.12.2022 09:22 9,4 C 8,9 C 7,2 C 98 % 1006,6 hPa 0,0 l/m 0 min 0 min 11 W/m 6,4 km/h (2 Bft) 97,83 %
23.12.2022 09:24 9,4 C 8,9 C 7,2 C 98 % 1006,5 hPa 0,0 l/m 0 min 0 min 12 W/m 9,7 km/h (2 Bft) 93,62 %
23.12.2022 09:26 9,4 C 8,9 C 7,2 C 98 % 1006,5 hPa 0,0 l/m 0 min 0 min 12 W/m 6,4 km/h (2 Bft) 97,87 %
23.12.2022 09:28 9,5 C 8,9 C 7,2 C 98 % 1006,6 hPa 0,0 l/m 0 min 0 min 12 W/m 9,7 km/h (2 Bft) 97,87 %
23.12.2022 09:30 9,4 C 8,9 C 7,2 C 98 % 1006,4 hPa 0,0 l/m 0 min 0 min 12 W/m 16,1 km/h (3 Bft) 97,87 %
23.12.2022 09:32 9,5 C 8,9 C 7,2 C 98 % 1006,5 hPa 0,0 l/m 0 min 0 min 11 W/m 9,7 km/h (2 Bft) 97,87 %
23.12.2022 09:34 9,5 C 8,9 C 7,2 C 98 % 1006,5 hPa 0,0 l/m 0 min 0 min 12 W/m 6,4 km/h (2 Bft) 97,87 %
23.12.2022 09:36 9,5 C 8,9 C 7,2 C 98 % 1006,5 hPa 0,0 l/m 0 min 0 min 13 W/m 6,4 km/h (2 Bft) 97,83 %
23.12.2022 09:38 9,5 C 8,9 C 7,2 C 98 % 1006,5 hPa 0,0 l/m 0 min 0 min 14 W/m 9,7 km/h (2 Bft) 97,87 %
23.12.2022 09:40 9,5 C 8,9 C 7,2 C 98 % 1006,4 hPa 0,0 l/m 0 min 0 min 16 W/m 6,4 km/h (2 Bft) 95,74 %
23.12.2022 09:42 9,5 C 8,9 C 7,2 C 98 % 1006,4 hPa 0,0 l/m 0 min 0 min 16 W/m 6,4 km/h (2 Bft) 97,87 %
23.12.2022 09:44 9,5 C 8,9 C 7,2 C 98 % 1006,4 hPa 0,0 l/m 0 min 0 min 17 W/m 6,4 km/h (2 Bft) 97,87 %
23.12.2022 09:46 9,5 C 8,9 C 7,2 C 98 % 1006,4 hPa 0,0 l/m 0 min 0 min 18 W/m 9,7 km/h (2 Bft) 97,87 %
23.12.2022 09:48 9,5 C 8,9 C 7,2 C 98 % 1006,3 hPa 0,0 l/m 0 min 0 min 20 W/m 6,4 km/h (2 Bft) 97,83 %
23.12.2022 09:50 9,4 C 8,9 C 7,2 C 98 % 1006,4 hPa 0,0 l/m 0 min 0 min 21 W/m 9,7 km/h (2 Bft) 97,87 %
23.12.2022 09:52 9,4 C 8,9 C 7,2 C 98 % 1006,4 hPa 0,0 l/m 0 min 0 min 23 W/m 9,7 km/h (2 Bft) 100,00 %
23.12.2022 09:54 9,4 C 8,9 C 7,2 C 98 % 1006,2 hPa 0,0 l/m 0 min 0 min 23 W/m 12,9 km/h (3 Bft) 95,74 %
23.12.2022 09:56 9,4 C 8,9 C 7,2 C 98 % 1006,3 hPa 0,0 l/m 0 min 0 min 23 W/m 9,7 km/h (2 Bft) 97,67 %
23.12.2022 09:58 9,5 C 8,9 C 7,2 C 98 % 1006,4 hPa 0,0 l/m 0 min 0 min 23 W/m 6,4 km/h (2 Bft) 93,62 %
23.12.2022 10:00 9,4 C 8,9 C 7,2 C 98 % 1006,5 hPa 0,0 l/m 0 min 0 min 23 W/m 9,7 km/h (2 Bft) 100,00 %
23.12.2022 10:02 9,4 C 8,9 C 7,2 C 98 % 1006,6 hPa 0,0 l/m 0 min 0 min 23 W/m 9,7 km/h (2 Bft) 100,00 %
23.12.2022 10:04 9,4 C 8,9 C 7,2 C 98 % 1006,5 hPa 0,0 l/m 0 min 0 min 25 W/m 3,2 km/h (1 Bft) 97,87 %
23.12.2022 10:06 9,4 C 8,9 C 7,2 C 98 % 1006,5 hPa 0,0 l/m 0 min 0 min 25 W/m 3,2 km/h (1 Bft) 100,00 %
23.12.2022 10:08 9,4 C 8,9 C 7,2 C 98 % 1006,6 hPa 0,0 l/m 0 min 0 min 25 W/m 6,4 km/h (2 Bft) 95,74 %
23.12.2022 10:10 9,4 C 8,9 C 7,2 C 98 % 1006,6 hPa 0,0 l/m 0 min 0 min 25 W/m 6,4 km/h (2 Bft) 100,00 %
23.12.2022 10:12 9,4 C 8,9 C 7,2 C 98 % 1006,5 hPa 0,0 l/m 0 min 0 min 25 W/m 9,7 km/h (2 Bft) 100,00 %
23.12.2022 10:14 9,4 C 8,9 C 7,2 C 98 % 1006,4 hPa 0,0 l/m 0 min 0 min 26 W/m 6,4 km/h (2 Bft) 100,00 %
23.12.2022 10:16 9,4 C 8,9 C 7,2 C 98 % 1006,5 hPa 0,0 l/m 0 min 0 min 26 W/m 0,0 km/h (0 Bft) 95,74 %
23.12.2022 10:18 9,4 C 8,9 C 7,2 C 98 % 1006,5 hPa 0,0 l/m 0 min 0 min 25 W/m 12,9 km/h (3 Bft) 97,87 %
23.12.2022 10:20 9,4 C 8,9 C 7,2 C 98 % 1006,4 hPa 0,0 l/m 0 min 0 min 25 W/m 6,4 km/h (2 Bft) 100,00 %
23.12.2022 10:22 9,5 C 8,9 C 7,2 C 98 % 1006,4 hPa 0,0 l/m 0 min 0 min 25 W/m 3,2 km/h (1 Bft) 97,87 %
23.12.2022 10:24 9,5 C 8,9 C 7,2 C 98 % 1006,4 hPa 0,0 l/m 0 min 0 min 25 W/m 0,0 km/h (0 Bft) 97,87 %
23.12.2022 10:26 9,5 C 8,9 C 7,2 C 98 % 1006,3 hPa 0,0 l/m 0 min 0 min 26 W/m 0,0 km/h (0 Bft) 93,62 %
23.12.2022 10:28 9,5 C 8,9 C 7,2 C 98 % 1006,3 hPa 0,0 l/m 0 min 0 min 28 W/m 3,2 km/h (1 Bft) 95,65 %
23.12.2022 10:30 9,5 C 8,9 C 7,2 C 98 % 1006,2 hPa 0,0 l/m 0 min 0 min 28 W/m 6,4 km/h (2 Bft) 97,87 %
23.12.2022 10:32 9,5 C 8,9 C 7,2 C 98 % 1006,3 hPa 0,0 l/m 0 min 0 min 25 W/m 16,1 km/h (3 Bft) 97,87 %
23.12.2022 10:34 9,5 C 8,9 C 7,2 C 98 % 1006,2 hPa 0,0 l/m 0 min 0 min 24 W/m 16,1 km/h (3 Bft) 95,74 %
23.12.2022 10:36 9,5 C 8,9 C 7,2 C 98 % 1006,2 hPa 0,0 l/m 0 min 0 min 26 W/m 16,1 km/h (3 Bft) 97,87 %
23.12.2022 10:38 9,6 C 8,9 C 7,2 C 98 % 1006,1 hPa 0,0 l/m 0 min 0 min 30 W/m 16,1 km/h (3 Bft) 97,87 %
23.12.2022 10:40 9,6 C 8,9 C 7,2 C 98 % 1006,1 hPa 0,0 l/m 0 min 0 min 32 W/m 12,9 km/h (3 Bft) 93,48 %
23.12.2022 10:42 9,6 C 8,9 C 7,2 C 98 % 1006,1 hPa 0,0 l/m 0 min 0 min 32 W/m 9,7 km/h (2 Bft) 95,74 %
23.12.2022 10:44 9,6 C 8,9 C 7,2 C 98 % 1006,1 hPa 0,0 l/m 0 min 0 min 29 W/m 9,7 km/h (2 Bft) 95,74 %
23.12.2022 10:46 9,6 C 8,9 C 7,2 C 98 % 1006,1 hPa 0,0 l/m 0 min 0 min 25 W/m 16,1 km/h (3 Bft) 93,62 %
23.12.2022 10:48 9,6 C 8,9 C 7,2 C 98 % 1006,1 hPa 0,0 l/m 0 min 0 min 23 W/m 19,3 km/h (3 Bft) 95,74 %
23.12.2022 10:50 9,6 C 8,9 C 7,2 C 98 % 1006,0 hPa 0,0 l/m 0 min 0 min 21 W/m 9,7 km/h (2 Bft) 93,62 %
23.12.2022 10:52 9,6 C 8,9 C 7,2 C 98 % 1005,9 hPa 0,0 l/m 0 min 0 min 22 W/m 6,4 km/h (2 Bft) 93,48 %
23.12.2022 10:54 9,6 C 8,9 C 7,2 C 98 % 1005,9 hPa 0,0 l/m 0 min 0 min 26 W/m 6,4 km/h (2 Bft) 95,74 %
23.12.2022 10:56 9,6 C 8,9 C 7,2 C 98 % 1005,8 hPa 0,0 l/m 0 min 0 min 30 W/m 6,4 km/h (2 Bft) 95,74 %
23.12.2022 10:58 9,6 C 8,9 C 7,2 C 98 % 1005,8 hPa 0,0 l/m 0 min 0 min 33 W/m 6,4 km/h (2 Bft) 89,36 %
23.12.2022 11:00 9,6 C 8,9 C 7,2 C 98 % 1005,8 hPa 0,0 l/m 0 min 0 min 35 W/m 9,7 km/h (2 Bft) 93,62 %
23.12.2022 11:02 9,6 C 8,9 C 7,2 C 98 % 1005,8 hPa 0,0 l/m 0 min 0 min 35 W/m 6,4 km/h (2 Bft) 95,74 %
23.12.2022 11:04 9,6 C 8,9 C 7,2 C 98 % 1005,8 hPa 0,0 l/m 0 min 0 min 35 W/m 6,4 km/h (2 Bft) 95,74 %
23.12.2022 11:06 9,6 C 8,9 C 7,2 C 98 % 1005,9 hPa 0,0 l/m 0 min 0 min 35 W/m 12,9 km/h (3 Bft) 95,65 %
23.12.2022 11:08 9,6 C 8,9 C 7,2 C 98 % 1005,8 hPa 0,0 l/m 0 min 0 min 33 W/m 9,7 km/h (2 Bft) 97,87 %
23.12.2022 11:10 9,6 C 8,9 C 7,2 C 98 % 1005,8 hPa 0,0 l/m 0 min 0 min 32 W/m 0,0 km/h (0 Bft) 97,87 %
23.12.2022 11:12 9,6 C 8,9 C 7,2 C 98 % 1005,7 hPa 0,0 l/m 0 min 0 min 32 W/m 6,4 km/h (2 Bft) 97,87 %
23.12.2022 11:14 9,6 C 8,9 C 7,2 C 98 % 1005,6 hPa 0,0 l/m 0 min 0 min 32 W/m 6,4 km/h (2 Bft) 100,00 %
23.12.2022 11:16 9,6 C 8,9 C 7,2 C 98 % 1005,6 hPa 0,0 l/m 0 min 0 min 32 W/m 6,4 km/h (2 Bft) 100,00 %
23.12.2022 11:18 9,6 C 8,9 C 7,2 C 98 % 1005,5 hPa 0,0 l/m 0 min 0 min 33 W/m 9,7 km/h (2 Bft) 100,00 %
23.12.2022 11:20 9,6 C 8,9 C 7,2 C 98 % 1005,5 hPa 0,0 l/m 0 min 0 min 37 W/m 9,7 km/h (2 Bft) 100,00 %
23.12.2022 11:22 9,6 C 8,9 C 7,2 C 98 % 1005,4 hPa 0,0 l/m 0 min 0 min 36 W/m 9,7 km/h (2 Bft) 97,87 %
23.12.2022 11:24 9,6 C 8,9 C 7,2 C 98 % 1005,2 hPa 0,0 l/m 0 min 0 min 44 W/m 3,2 km/h (1 Bft) 97,87 %
23.12.2022 11:26 9,5 C 8,9 C 7,2 C 98 % 1005,2 hPa 0,0 l/m 0 min 0 min 50 W/m 6,4 km/h (2 Bft) 97,87 %
23.12.2022 11:28 9,5 C 8,9 C 7,2 C 98 % 1005,2 hPa 0,0 l/m 0 min 0 min 58 W/m 9,7 km/h (2 Bft) 100,00 %
23.12.2022 11:30 9,5 C 9,4 C 7,2 C 98 % 1005,2 hPa 0,0 l/m 0 min 0 min 66 W/m 6,4 km/h (2 Bft) 100,00 %
23.12.2022 11:32 9,5 C 9,4 C 7,2 C 98 % 1005,4 hPa 0,0 l/m 0 min 0 min 78 W/m 6,4 km/h (2 Bft) 100,00 %
23.12.2022 11:34 9,6 C 9,4 C 7,2 C 98 % 1005,4 hPa 0,0 l/m 0 min 0 min 84 W/m 12,9 km/h (3 Bft) 100,00 %
23.12.2022 11:36 9,6 C 9,4 C 7,2 C 98 % 1005,4 hPa 0,0 l/m 0 min 0 min 85 W/m 12,9 km/h (3 Bft) 100,00 %
23.12.2022 11:38 9,6 C 9,4 C 7,2 C 98 % 1005,4 hPa 0,0 l/m 0 min 0 min 82 W/m 16,1 km/h (3 Bft) 97,87 %
23.12.2022 11:40 9,6 C 9,4 C 7,2 C 98 % 1005,4 hPa 0,0 l/m 0 min 0 min 68 W/m 9,7 km/h (2 Bft) 100,00 %
23.12.2022 11:42 9,6 C 9,4 C 7,2 C 98 % 1005,3 hPa 0,0 l/m 0 min 0 min 58 W/m 6,4 km/h (2 Bft) 100,00 %
23.12.2022 11:44 9,6 C 9,4 C 7,2 C 98 % 1005,4 hPa 0,0 l/m 0 min 0 min 54 W/m 9,7 km/h (2 Bft) 97,87 %
23.12.2022 11:46 9,6 C 9,4 C 7,2 C 98 % 1005,2 hPa 0,0 l/m 0 min 0 min 54 W/m 3,2 km/h (1 Bft) 100,00 %
23.12.2022 11:48 9,6 C 9,4 C 7,2 C 98 % 1005,2 hPa 0,0 l/m 0 min 0 min 50 W/m 3,2 km/h (1 Bft) 100,00 %
23.12.2022 11:50 9,6 C 9,4 C 7,2 C 98 % 1005,0 hPa 0,0 l/m 0 min 0 min 38 W/m 6,4 km/h (2 Bft) 97,87 %
23.12.2022 11:52 9,6 C 9,4 C 7,2 C 98 % 1005,1 hPa 0,0 l/m 0 min 0 min 27 W/m 6,4 km/h (2 Bft) 100,00 %
23.12.2022 11:54 9,6 C 9,4 C 7,2 C 98 % 1005,0 hPa 0,0 l/m 0 min 0 min 22 W/m 9,7 km/h (2 Bft) 100,00 %
23.12.2022 11:56 9,6 C 9,4 C 7,2 C 98 % 1004,9 hPa 0,0 l/m 0 min 0 min 22 W/m 6,4 km/h (2 Bft) 95,74 %
23.12.2022 11:58 9,6 C 8,9 C 7,2 C 98 % 1004,9 hPa 0,0 l/m 0 min 0 min 26 W/m 9,7 km/h (2 Bft) 100,00 %
23.12.2022 12:00 9,6 C 8,9 C 7,2 C 98 % 1004,9 hPa 0,0 l/m 0 min 0 min 32 W/m 6,4 km/h (2 Bft) 100,00 %
23.12.2022 12:02 9,6 C 8,9 C 7,2 C 98 % 1004,9 hPa 0,0 l/m 0 min 0 min 33 W/m 6,4 km/h (2 Bft) 97,87 %
23.12.2022 12:04 9,6 C 8,9 C 7,2 C 98 % 1004,8 hPa 0,0 l/m 0 min 0 min 32 W/m 12,9 km/h (3 Bft) 95,74 %
23.12.2022 12:08 9,6 C 8,9 C 7,2 C 98 % 1004,9 hPa 0,0 l/m 0 min 0 min 22 W/m 9,7 km/h (2 Bft) 96,81 %
23.12.2022 12:10 9,6 C 8,9 C 7,2 C 98 % 1004,8 hPa 0,0 l/m 0 min 0 min 13 W/m 6,4 km/h (2 Bft) 97,83 %
23.12.2022 12:12 9,6 C 8,9 C 7,2 C 98 % 1004,8 hPa 0,0 l/m 0 min 0 min 11 W/m 3,2 km/h (1 Bft) 95,74 %
23.12.2022 12:14 9,6 C 8,9 C 7,2 C 98 % 1004,7 hPa 0,0 l/m 0 min 0 min 11 W/m 12,9 km/h (3 Bft) 95,74 %
23.12.2022 12:16 9,6 C 8,9 C 7,2 C 98 % 1004,7 hPa 0,0 l/m 0 min 0 min 12 W/m 6,4 km/h (2 Bft) 95,74 %
23.12.2022 12:18 9,6 C 8,9 C 7,2 C 98 % 1004,7 hPa 0,0 l/m 0 min 0 min 14 W/m 9,7 km/h (2 Bft) 97,87 %
23.12.2022 12:20 9,5 C 8,9 C 7,2 C 98 % 1004,6 hPa 0,0 l/m 0 min 0 min 19 W/m 9,7 km/h (2 Bft) 95,74 %
23.12.2022 12:22 9,5 C 8,9 C 7,2 C 98 % 1004,6 hPa 0,0 l/m 0 min 0 min 26 W/m 6,4 km/h (2 Bft) 97,87 %
23.12.2022 12:24 9,5 C 8,9 C 7,2 C 98 % 1004,5 hPa 0,0 l/m 0 min 0 min 34 W/m 12,9 km/h (3 Bft) 97,83 %
23.12.2022 12:26 9,5 C 8,9 C 7,2 C 98 % 1004,5 hPa 0,0 l/m 0 min 0 min 45 W/m 9,7 km/h (2 Bft) 95,74 %
23.12.2022 12:28 9,5 C 9,4 C 7,2 C 98 % 1004,4 hPa 0,0 l/m 0 min 0 min 53 W/m 16,1 km/h (3 Bft) 97,87 %
23.12.2022 12:30 9,5 C 9,4 C 7,2 C 98 % 1004,4 hPa 0,0 l/m 0 min 0 min 61 W/m 9,7 km/h (2 Bft) 97,87 %
23.12.2022 12:32 9,5 C 9,4 C 7,2 C 98 % 1004,4 hPa 0,0 l/m 0 min 0 min 71 W/m 6,4 km/h (2 Bft) 95,74 %
23.12.2022 12:34 9,5 C 9,4 C 7,2 C 98 % 1004,4 hPa 0,0 l/m 0 min 0 min 82 W/m 3,2 km/h (1 Bft) 95,74 %
23.12.2022 12:36 9,5 C 9,4 C 7,2 C 98 % 1004,2 hPa 0,0 l/m 0 min 0 min 79 W/m 6,4 km/h (2 Bft) 95,74 %
23.12.2022 12:38 9,6 C 9,4 C 7,2 C 98 % 1004,2 hPa 0,0 l/m 0 min 0 min 70 W/m 6,4 km/h (2 Bft) 93,48 %
23.12.2022 12:40 9,6 C 9,4 C 7,2 C 98 % 1004,1 hPa 0,0 l/m 0 min 0 min 67 W/m 6,4 km/h (2 Bft) 95,74 %
23.12.2022 12:42 9,6 C 9,4 C 7,2 C 98 % 1004,0 hPa 0,0 l/m 0 min 0 min 67 W/m 6,4 km/h (2 Bft) 95,74 %
23.12.2022 12:44 9,6 C 9,4 C 7,2 C 98 % 1003,9 hPa 0,0 l/m 0 min 0 min 61 W/m 12,9 km/h (3 Bft) 94,29 %
23.12.2022 12:46 9,6 C 9,4 C 7,2 C 98 % 1003,8 hPa 0,0 l/m 0 min 0 min 59 W/m 12,9 km/h (3 Bft) 91,49 %
23.12.2022 12:48 9,6 C 9,4 C 7,2 C 98 % 1003,8 hPa 0,0 l/m 0 min 0 min 56 W/m 12,9 km/h (3 Bft) 93,62 %
23.12.2022 12:50 9,6 C 9,4 C 7,2 C 98 % 1003,8 hPa 0,0 l/m 0 min 0 min 54 W/m 6,4 km/h (2 Bft) 93,62 %
23.12.2022 12:52 9,6 C 9,4 C 7,2 C 98 % 1003,7 hPa 0,0 l/m 0 min 0 min 48 W/m 6,4 km/h (2 Bft) 95,74 %
23.12.2022 12:54 9,6 C 9,4 C 7,2 C 98 % 1003,7 hPa 0,0 l/m 0 min 2 min 44 W/m 6,4 km/h (2 Bft) 95,65 %
23.12.2022 12:56 9,6 C 9,4 C 7,2 C 98 % 1003,6 hPa 0,0 l/m 0 min 2 min 41 W/m 12,9 km/h (3 Bft) 97,87 %
23.12.2022 12:58 9,6 C 9,4 C 7,2 C 98 % 1003,5 hPa 0,0 l/m 0 min 2 min 41 W/m 3,2 km/h (1 Bft) 95,74 %
23.12.2022 13:00 9,6 C 9,4 C 7,2 C 98 % 1003,3 hPa 0,0 l/m 0 min 2 min 41 W/m 6,4 km/h (2 Bft) 95,74 %
23.12.2022 13:02 9,6 C 9,4 C 7,2 C 98 % 1003,2 hPa 0,0 l/m 0 min 2 min 36 W/m 6,4 km/h (2 Bft) 97,87 %
23.12.2022 13:04 9,6 C 9,4 C 7,2 C 98 % 1003,1 hPa 0,2 l/m 0 min 2 min 33 W/m 6,4 km/h (2 Bft) 95,74 %
23.12.2022 13:06 9,6 C 9,4 C 7,2 C 98 % 1003,2 hPa 0,0 l/m 0 min 2 min 29 W/m 12,9 km/h (3 Bft) 94,83 %
23.12.2022 13:08 9,6 C 8,9 C 7,2 C 98 % 1003,3 hPa 0,0 l/m 0 min 2 min 28 W/m 9,7 km/h (2 Bft) 97,14 %
23.12.2022 13:10 9,6 C 8,9 C 7,2 C 98 % 1003,3 hPa 0,0 l/m 0 min 2 min 28 W/m 16,1 km/h (3 Bft) 95,74 %
23.12.2022 13:12 9,6 C 8,9 C 7,2 C 98 % 1003,3 hPa 0,0 l/m 0 min 2 min 30 W/m 16,1 km/h (3 Bft) 95,74 %
23.12.2022 13:14 9,6 C 8,9 C 7,2 C 98 % 1003,3 hPa 0,0 l/m 0 min 2 min 31 W/m 12,9 km/h (3 Bft) 97,87 %
23.12.2022 13:16 9,6 C 8,9 C 7,2 C 98 % 1003,3 hPa 0,2 l/m 0 min 2 min 28 W/m 12,9 km/h (3 Bft) 97,87 %
23.12.2022 13:18 9,6 C 8,9 C 7,2 C 98 % 1003,3 hPa 0,0 l/m 0 min 2 min 24 W/m 12,9 km/h (3 Bft) 97,87 %
23.12.2022 13:20 9,6 C 8,9 C 7,2 C 98 % 1003,2 hPa 0,0 l/m 0 min 2 min 18 W/m 6,4 km/h (2 Bft) 95,65 %
23.12.2022 13:22 9,6 C 8,9 C 7,2 C 98 % 1003,3 hPa 0,0 l/m 0 min 2 min 16 W/m 6,4 km/h (2 Bft) 95,74 %
23.12.2022 13:24 9,5 C 8,9 C 7,2 C 97 % 1003,2 hPa 0,2 l/m 0 min 2 min 15 W/m 12,9 km/h (3 Bft) 97,87 %
23.12.2022 13:26 9,5 C 8,9 C 7,2 C 97 % 1003,2 hPa 0,0 l/m 0 min 2 min 14 W/m 9,7 km/h (2 Bft) 97,87 %
23.12.2022 13:28 9,5 C 8,9 C 7,2 C 97 % 1003,1 hPa 0,0 l/m 0 min 2 min 16 W/m 6,4 km/h (2 Bft) 95,74 %
23.12.2022 13:30 9,5 C 8,9 C 7,2 C 97 % 1003,1 hPa 0,2 l/m 0 min 2 min 18 W/m 9,7 km/h (2 Bft) 97,87 %
23.12.2022 13:32 9,5 C 8,9 C 7,2 C 97 % 1003,0 hPa 0,0 l/m 0 min 2 min 20 W/m 12,9 km/h (3 Bft) 100,00 %
23.12.2022 13:34 9,4 C 8,9 C 7,2 C 97 % 1002,9 hPa 0,2 l/m 0 min 2 min 27 W/m 6,4 km/h (2 Bft) 97,83 %
23.12.2022 13:36 9,4 C 8,9 C 7,2 C 97 % 1002,9 hPa 0,0 l/m 0 min 2 min 34 W/m 12,9 km/h (3 Bft) 97,87 %
23.12.2022 13:38 9,4 C 8,9 C 7,2 C 97 % 1002,8 hPa 0,2 l/m 0 min 2 min 45 W/m 6,4 km/h (2 Bft) 97,87 %
23.12.2022 13:40 9,4 C 8,9 C 7,2 C 97 % 1002,7 hPa 0,0 l/m 0 min 2 min 45 W/m 6,4 km/h (2 Bft) 97,87 %
23.12.2022 13:42 9,4 C 8,9 C 7,2 C 97 % 1002,6 hPa 0,2 l/m 0 min 2 min 38 W/m 12,9 km/h (3 Bft) 95,74 %
23.12.2022 13:44 9,4 C 8,9 C 7,2 C 97 % 1002,6 hPa 0,0 l/m 0 min 2 min 38 W/m 6,4 km/h (2 Bft) 97,87 %
23.12.2022 13:46 9,4 C 8,9 C 7,2 C 97 % 1002,5 hPa 0,0 l/m 0 min 2 min 40 W/m 6,4 km/h (2 Bft) 97,83 %
23.12.2022 13:48 9,4 C 8,9 C 7,2 C 97 % 1002,5 hPa 0,0 l/m 0 min 2 min 35 W/m 16,1 km/h (3 Bft) 100,00 %
23.12.2022 13:50 9,3 C 8,3 C 7,2 C 97 % 1002,4 hPa 0,0 l/m 0 min 2 min 29 W/m 9,7 km/h (2 Bft) 100,00 %
23.12.2022 13:52 9,3 C 8,3 C 7,2 C 98 % 1002,4 hPa 0,2 l/m 0 min 2 min 29 W/m 12,9 km/h (3 Bft) 97,87 %
23.12.2022 13:54 9,3 C 8,3 C 6,7 C 98 % 1002,3 hPa 0,2 l/m 0 min 2 min 35 W/m 16,1 km/h (3 Bft) 100,00 %
23.12.2022 13:56 9,3 C 8,3 C 6,7 C 98 % 1002,2 hPa 0,0 l/m 0 min 2 min 43 W/m 16,1 km/h (3 Bft) 100,00 %
23.12.2022 13:58 9,3 C 8,3 C 7,2 C 98 % 1002,2 hPa 0,2 l/m 0 min 2 min 38 W/m 12,9 km/h (3 Bft) 100,00 %
23.12.2022 14:00 9,3 C 8,3 C 6,7 C 98 % 1002,2 hPa 0,0 l/m 0 min 2 min 25 W/m 9,7 km/h (2 Bft) 100,00 %
23.12.2022 14:02 9,3 C 8,3 C 6,7 C 98 % 1002,1 hPa 0,2 l/m 0 min 2 min 23 W/m 3,2 km/h (1 Bft) 100,00 %
23.12.2022 14:04 9,3 C 8,3 C 6,7 C 98 % 1002,0 hPa 0,0 l/m 0 min 2 min 31 W/m 16,1 km/h (3 Bft) 100,00 %
23.12.2022 14:06 9,3 C 8,3 C 6,7 C 98 % 1001,9 hPa 0,0 l/m 0 min 2 min 40 W/m 19,3 km/h (3 Bft) 98,31 %
23.12.2022 14:08 9,3 C 8,3 C 6,7 C 98 % 1001,9 hPa 0,2 l/m 0 min 2 min 36 W/m 6,4 km/h (2 Bft) 23,08 %
23.12.2022 14:10 9,2 C 8,3 C 6,7 C 98 % 1001,8 hPa 0,0 l/m 0 min 2 min 25 W/m 9,7 km/h (2 Bft) 100,00 %
23.12.2022 14:12 9,2 C 8,3 C 6,7 C 98 % 1001,9 hPa 0,0 l/m 0 min 2 min 17 W/m 16,1 km/h (3 Bft) 97,83 %
23.12.2022 14:14 9,2 C 8,3 C 6,7 C 98 % 1002,0 hPa 0,2 l/m 0 min 2 min 9 W/m 12,9 km/h (3 Bft) 100,00 %
23.12.2022 14:16 9,2 C 8,3 C 6,7 C 98 % 1001,9 hPa 0,0 l/m 0 min 2 min 7 W/m 12,9 km/h (3 Bft) 95,74 %
23.12.2022 14:18 9,2 C 8,3 C 6,7 C 98 % 1001,9 hPa 0,2 l/m 0 min 2 min 8 W/m 6,4 km/h (2 Bft) 95,74 %
23.12.2022 14:20 9,2 C 8,3 C 6,7 C 98 % 1001,8 hPa 0,2 l/m 0 min 2 min 11 W/m 6,4 km/h (2 Bft) 100,00 %
23.12.2022 14:22 9,2 C 8,3 C 6,7 C 98 % 1001,8 hPa 0,2 l/m 0 min 2 min 10 W/m 16,1 km/h (3 Bft) 97,87 %
23.12.2022 14:24 9,2 C 8,3 C 6,7 C 98 % 1001,7 hPa 0,2 l/m 0 min 2 min 14 W/m 12,9 km/h (3 Bft) 100,00 %
23.12.2022 14:26 9,2 C 8,3 C 6,7 C 98 % 1001,7 hPa 0,2 l/m 0 min 2 min 15 W/m 3,2 km/h (1 Bft) 100,00 %
23.12.2022 14:28 9,2 C 8,3 C 6,7 C 98 % 1001,8 hPa 0,2 l/m 0 min 2 min 9 W/m 6,4 km/h (2 Bft) 100,00 %
23.12.2022 14:30 9,2 C 8,3 C 6,7 C 98 % 1001,8 hPa 0,2 l/m 0 min 2 min 7 W/m 12,9 km/h (3 Bft) 100,00 %
23.12.2022 14:32 9,2 C 8,3 C 6,7 C 98 % 1001,6 hPa 0,4 l/m 0 min 2 min 10 W/m 6,4 km/h (2 Bft) 100,00 %
23.12.2022 14:34 9,2 C 8,3 C 6,7 C 98 % 1001,6 hPa 0,4 l/m 0 min 2 min 10 W/m 16,1 km/h (3 Bft) 100,00 %
23.12.2022 14:36 9,1 C 8,3 C 6,7 C 98 % 1001,7 hPa 0,0 l/m 0 min 2 min 12 W/m 6,4 km/h (2 Bft) 100,00 %
23.12.2022 14:38 9,1 C 8,3 C 6,7 C 98 % 1001,7 hPa 0,2 l/m 0 min 2 min 13 W/m 9,7 km/h (2 Bft) 95,65 %
23.12.2022 14:40 9,1 C 8,3 C 6,7 C 98 % 1001,5 hPa 0,2 l/m 0 min 2 min 14 W/m 12,9 km/h (3 Bft) 97,87 %
23.12.2022 14:42 9,1 C 8,3 C 6,7 C 98 % 1001,3 hPa 0,2 l/m 0 min 2 min 12 W/m 12,9 km/h (3 Bft) 97,87 %
23.12.2022 14:44 9,1 C 8,3 C 6,7 C 98 % 1001,1 hPa 0,2 l/m 0 min 2 min 12 W/m 12,9 km/h (3 Bft) 97,87 %
23.12.2022 14:46 9,1 C 8,3 C 6,7 C 98 % 1000,9 hPa 0,2 l/m 0 min 2 min 9 W/m 19,3 km/h (3 Bft) 96,23 %
23.12.2022 14:48 9,1 C 8,3 C 6,7 C 98 % 1000,9 hPa 0,2 l/m 0 min 2 min 7 W/m 19,3 km/h (3 Bft) 97,87 %
23.12.2022 14:50 9,1 C 8,3 C 6,7 C 98 % 1000,8 hPa 0,2 l/m 0 min 2 min 13 W/m 16,1 km/h (3 Bft) 97,87 %
23.12.2022 14:52 9,1 C 8,3 C 6,7 C 98 % 1000,8 hPa 0,2 l/m 0 min 2 min 20 W/m 16,1 km/h (3 Bft) 97,83 %
23.12.2022 14:54 9,1 C 8,3 C 6,7 C 98 % 1000,7 hPa 0,4 l/m 0 min 2 min 20 W/m 19,3 km/h (3 Bft) 97,87 %
23.12.2022 14:56 9,1 C 8,3 C 6,7 C 98 % 1000,7 hPa 0,2 l/m 0 min 2 min 13 W/m 9,7 km/h (2 Bft) 93,62 %
23.12.2022 14:58 9,1 C 8,3 C 6,7 C 98 % 1000,7 hPa 0,2 l/m 0 min 2 min 17 W/m 16,1 km/h (3 Bft) 95,74 %
23.12.2022 15:00 9,1 C 8,3 C 6,7 C 98 % 1000,6 hPa 0,2 l/m 0 min 2 min 17 W/m 9,7 km/h (2 Bft) 95,74 %
23.12.2022 15:02 9,1 C 8,3 C 6,7 C 98 % 1000,6 hPa 0,0 l/m 0 min 2 min 14 W/m 16,1 km/h (3 Bft) 93,62 %
23.12.2022 15:04 9,1 C 8,3 C 6,7 C 98 % 1000,6 hPa 0,0 l/m 0 min 2 min 13 W/m 19,3 km/h (3 Bft) 95,74 %
23.12.2022 15:06 9,1 C 8,3 C 7,2 C 98 % 1000,6 hPa 0,2 l/m 0 min 2 min 14 W/m 12,9 km/h (3 Bft) 97,83 %
23.12.2022 15:08 9,1 C 8,3 C 7,2 C 98 % 1000,5 hPa 0,0 l/m 0 min 0 min 15 W/m 9,7 km/h (2 Bft) 95,74 %
23.12.2022 15:10 9,1 C 8,3 C 7,2 C 98 % 1000,6 hPa 0,2 l/m 0 min 0 min 16 W/m 16,1 km/h (3 Bft) 93,62 %
23.12.2022 15:12 9,1 C 8,3 C 7,2 C 98 % 1000,7 hPa 0,0 l/m 0 min 0 min 16 W/m 19,3 km/h (3 Bft) 95,74 %
23.12.2022 15:14 9,2 C 8,3 C 7,2 C 98 % 1000,6 hPa 0,0 l/m 0 min 0 min 23 W/m 12,9 km/h (3 Bft) 95,74 %
23.12.2022 15:16 9,2 C 8,3 C 7,2 C 98 % 1000,6 hPa 0,0 l/m 0 min 0 min 15 W/m 22,5 km/h (4 Bft) 97,87 %
23.12.2022 15:18 9,2 C 8,3 C 7,2 C 98 % 1000,6 hPa 0,0 l/m 0 min 0 min 11 W/m 16,1 km/h (3 Bft) 97,83 %
23.12.2022 15:20 9,2 C 8,3 C 7,2 C 98 % 1000,7 hPa 0,2 l/m 0 min 2 min 8 W/m 6,4 km/h (2 Bft) 97,87 %
23.12.2022 15:22 9,2 C 8,3 C 7,2 C 98 % 1000,5 hPa 0,2 l/m 0 min 2 min 12 W/m 16,1 km/h (3 Bft) 95,74 %
23.12.2022 15:24 9,2 C 8,3 C 7,2 C 98 % 1000,3 hPa 0,0 l/m 0 min 2 min 12 W/m 16,1 km/h (3 Bft) 97,87 %
23.12.2022 15:26 9,2 C 8,3 C 7,2 C 98 % 1000,3 hPa 0,0 l/m 0 min 2 min 9 W/m 12,9 km/h (3 Bft) 95,74 %
23.12.2022 15:28 9,2 C 8,3 C 7,2 C 98 % 1000,4 hPa 0,0 l/m 0 min 2 min 14 W/m 6,4 km/h (2 Bft) 95,74 %
23.12.2022 15:30 9,2 C 8,3 C 7,2 C 98 % 1000,3 hPa 0,2 l/m 0 min 2 min 15 W/m 6,4 km/h (2 Bft) 95,65 %
23.12.2022 15:32 9,2 C 8,3 C 7,2 C 98 % 1000,2 hPa 0,2 l/m 0 min 2 min 11 W/m 19,3 km/h (3 Bft) 97,87 %
23.12.2022 15:34 9,2 C 8,3 C 7,2 C 98 % 1000,1 hPa 0,0 l/m 0 min 0 min 5 W/m 16,1 km/h (3 Bft) 97,87 %
23.12.2022 15:36 9,2 C 8,3 C 7,2 C 98 % 1000,1 hPa 0,0 l/m 0 min 0 min 0 W/m 16,1 km/h (3 Bft) 95,74 %
23.12.2022 15:38 9,2 C 8,3 C 7,2 C 99 % 1000,1 hPa 0,0 l/m 0 min 2 min 0 W/m 19,3 km/h (3 Bft) 95,74 %
23.12.2022 15:40 9,2 C 8,3 C 7,2 C 99 % 1000,0 hPa 0,0 l/m 0 min 0 min 0 W/m 12,9 km/h (3 Bft) 95,74 %
23.12.2022 15:42 9,2 C 8,3 C 7,2 C 99 % 1000,1 hPa 0,0 l/m 0 min 0 min 0 W/m 12,9 km/h (3 Bft) 95,74 %
23.12.2022 15:44 9,2 C 8,3 C 7,2 C 99 % 1000,0 hPa 0,0 l/m 0 min 2 min 0 W/m 12,9 km/h (3 Bft) 95,65 %
23.12.2022 15:46 9,2 C 8,3 C 7,2 C 99 % 1000,0 hPa 0,0 l/m 0 min 0 min 0 W/m 12,9 km/h (3 Bft) 97,87 %
23.12.2022 15:48 9,2 C 8,3 C 7,2 C 99 % 1000,0 hPa 0,0 l/m 0 min 0 min 0 W/m 12,9 km/h (3 Bft) 95,74 %
23.12.2022 15:50 9,2 C 8,3 C 7,2 C 99 % 1000,0 hPa 0,0 l/m 0 min 0 min 2 W/m 12,9 km/h (3 Bft) 96,00 %
23.12.2022 15:52 9,2 C 8,3 C 7,2 C 99 % 1000,0 hPa 0,0 l/m 0 min 0 min 12 W/m 9,7 km/h (2 Bft) 97,87 %
23.12.2022 15:54 9,3 C 8,3 C 7,2 C 99 % 1000,0 hPa 0,0 l/m 0 min 0 min 11 W/m 12,9 km/h (3 Bft) 97,87 %
23.12.2022 15:56 9,3 C 8,3 C 7,2 C 99 % 1000,0 hPa 0,0 l/m 0 min 0 min 11 W/m 9,7 km/h (2 Bft) 97,83 %
23.12.2022 15:58 9,3 C 8,3 C 7,2 C 99 % 999,9 hPa 0,0 l/m 0 min 0 min 8 W/m 12,9 km/h (3 Bft) 93,62 %
23.12.2022 16:00 9,3 C 8,9 C 7,2 C 99 % 1000,0 hPa 0,2 l/m 0 min 2 min 5 W/m 12,9 km/h (3 Bft) 97,87 %
23.12.2022 16:02 9,3 C 8,9 C 7,2 C 99 % 999,9 hPa 0,0 l/m 0 min 0 min 6 W/m 16,1 km/h (3 Bft) 97,87 %
23.12.2022 16:04 9,4 C 8,9 C 7,2 C 99 % 999,9 hPa 0,0 l/m 0 min 0 min 7 W/m 9,7 km/h (2 Bft) 97,87 %
23.12.2022 16:06 9,4 C 8,9 C 7,2 C 99 % 999,8 hPa 0,0 l/m 0 min 0 min 9 W/m 12,9 km/h (3 Bft) 97,87 %
23.12.2022 16:08 9,4 C 8,9 C 7,2 C 99 % 999,9 hPa 0,0 l/m 0 min 0 min 11 W/m 16,1 km/h (3 Bft) 97,83 %
23.12.2022 16:10 9,5 C 8,9 C 7,2 C 99 % 999,9 hPa 0,0 l/m 0 min 0 min 13 W/m 12,9 km/h (3 Bft) 97,87 %
23.12.2022 16:12 9,5 C 8,9 C 7,2 C 99 % 999,9 hPa 0,0 l/m 0 min 0 min 14 W/m 9,7 km/h (2 Bft) 97,87 %
23.12.2022 16:14 9,6 C 8,9 C 7,2 C 99 % 999,9 hPa 0,0 l/m 0 min 0 min 11 W/m 6,4 km/h (2 Bft) 97,87 %
23.12.2022 16:16 9,6 C 8,9 C 7,2 C 99 % 999,9 hPa 0,0 l/m 0 min 0 min 9 W/m 6,4 km/h (2 Bft) 97,87 %
23.12.2022 16:18 9,6 C 8,9 C 7,2 C 99 % 999,9 hPa 0,0 l/m 0 min 0 min 7 W/m 6,4 km/h (2 Bft) 97,87 %
23.12.2022 16:20 9,6 C 8,9 C 7,2 C 99 % 999,9 hPa 0,0 l/m 0 min 0 min 2 W/m 9,7 km/h (2 Bft) 97,87 %
23.12.2022 16:22 9,7 C 9,4 C 7,8 C 99 % 999,9 hPa 0,0 l/m 0 min 0 min 0 W/m 19,3 km/h (3 Bft) 97,83 %
23.12.2022 16:24 9,8 C 9,4 C 7,8 C 99 % 999,9 hPa 0,0 l/m 0 min 0 min 0 W/m 12,9 km/h (3 Bft) 100,00 %
23.12.2022 16:26 9,9 C 9,4 C 7,8 C 99 % 999,9 hPa 0,0 l/m 0 min 0 min 0 W/m 12,9 km/h (3 Bft) 100,00 %
23.12.2022 16:28 10,1 C 9,4 C 7,8 C 99 % 999,9 hPa 0,0 l/m 0 min 2 min 0 W/m 22,5 km/h (4 Bft) 97,87 %
23.12.2022 16:30 10,2 C 10,0 C 8,3 C 99 % 1000,0 hPa 0,0 l/m 0 min 2 min 0 W/m 25,7 km/h (4 Bft) 100,00 %
23.12.2022 16:32 10,4 C 10,0 C 8,3 C 99 % 999,9 hPa 0,0 l/m 0 min 2 min 0 W/m 22,5 km/h (4 Bft) 100,00 %
23.12.2022 16:34 10,6 C 10,0 C 8,3 C 99 % 999,9 hPa 0,0 l/m 0 min 2 min 0 W/m 12,9 km/h (3 Bft) 97,83 %
23.12.2022 16:36 10,7 C 10,0 C 8,3 C 99 % 999,9 hPa 0,0 l/m 0 min 2 min 0 W/m 19,3 km/h (3 Bft) 97,87 %
23.12.2022 16:38 10,8 C 10,0 C 8,3 C 99 % 999,9 hPa 0,0 l/m 0 min 2 min 0 W/m 12,9 km/h (3 Bft) 97,87 %
23.12.2022 16:40 10,9 C 10,6 C 8,3 C 99 % 1000,0 hPa 0,0 l/m 0 min 2 min 0 W/m 19,3 km/h (3 Bft) 97,87 %
23.12.2022 16:42 11,0 C 10,6 C 8,3 C 100 % 999,9 hPa 0,0 l/m 0 min 2 min 0 W/m 16,1 km/h (3 Bft) 95,74 %
23.12.2022 16:44 11,2 C 10,6 C 8,9 C 100 % 999,9 hPa 0,0 l/m 0 min 2 min 0 W/m 16,1 km/h (3 Bft) 97,87 %
23.12.2022 16:46 11,2 C 10,6 C 8,9 C 99 % 999,9 hPa 0,0 l/m 0 min 2 min 0 W/m 12,9 km/h (3 Bft) 97,83 %
23.12.2022 16:48 11,3 C 10,6 C 8,9 C 100 % 999,9 hPa 0,0 l/m 0 min 2 min 0 W/m 12,9 km/h (3 Bft) 97,87 %
23.12.2022 16:50 11,4 C 10,6 C 8,9 C 100 % 1000,0 hPa 0,0 l/m 0 min 2 min 0 W/m 12,9 km/h (3 Bft) 95,74 %
23.12.2022 16:52 11,4 C 10,6 C 8,9 C 100 % 1000,0 hPa 0,0 l/m 0 min 0 min 0 W/m 9,7 km/h (2 Bft) 97,87 %
23.12.2022 16:54 11,4 C 11,1 C 8,9 C 100 % 1000,0 hPa 0,0 l/m 0 min 0 min 0 W/m 22,5 km/h (4 Bft) 97,87 %
23.12.2022 16:56 11,5 C 11,1 C 8,9 C 100 % 1000,1 hPa 0,0 l/m 0 min 0 min 0 W/m 22,5 km/h (4 Bft) 97,87 %
23.12.2022 16:58 11,6 C 11,1 C 8,9 C 100 % 1000,0 hPa 0,0 l/m 0 min 0 min 0 W/m 22,5 km/h (4 Bft) 97,87 %
23.12.2022 17:00 11,6 C 11,1 C 8,9 C 100 % 1000,1 hPa 0,0 l/m 0 min 0 min 0 W/m 12,9 km/h (3 Bft) 93,48 %
23.12.2022 17:02 11,6 C 11,1 C 8,9 C 100 % 1000,1 hPa 0,0 l/m 0 min 0 min 0 W/m 19,3 km/h (3 Bft) 95,74 %
23.12.2022 17:04 11,7 C 11,1 C 8,9 C 100 % 1000,2 hPa 0,0 l/m 0 min 0 min 0 W/m 22,5 km/h (4 Bft) 97,87 %
23.12.2022 17:06 11,8 C 11,1 C 8,9 C 100 % 1000,1 hPa 0,0 l/m 0 min 2 min 0 W/m 19,3 km/h (3 Bft) 97,87 %
23.12.2022 17:08 11,8 C 11,1 C 8,9 C 100 % 1000,2 hPa 0,0 l/m 0 min 2 min 0 W/m 25,7 km/h (4 Bft) 100,00 %
23.12.2022 17:10 11,9 C 11,1 C 8,9 C 100 % 1000,2 hPa 0,0 l/m 0 min 2 min 0 W/m 29,0 km/h (5 Bft) 100,00 %
23.12.2022 17:12 11,9 C 11,1 C 8,9 C 100 % 1000,2 hPa 0,0 l/m 0 min 0 min 0 W/m 16,1 km/h (3 Bft) 100,00 %
23.12.2022 17:14 12,0 C 11,1 C 8,9 C 100 % 1000,2 hPa 0,0 l/m 0 min 2 min 0 W/m 29,0 km/h (5 Bft) 97,87 %
23.12.2022 17:16 12,0 C 11,1 C 8,9 C 100 % 1000,3 hPa 0,0 l/m 0 min 0 min 0 W/m 22,5 km/h (4 Bft) 100,00 %
23.12.2022 17:18 12,0 C 11,1 C 8,9 C 100 % 1000,3 hPa 0,0 l/m 0 min 0 min 0 W/m 19,3 km/h (3 Bft) 100,00 %
23.12.2022 17:20 12,0 C 11,1 C 8,9 C 100 % 1000,2 hPa 0,0 l/m 0 min 0 min 0 W/m 19,3 km/h (3 Bft) 100,00 %
23.12.2022 17:22 12,0 C 11,1 C 8,9 C 100 % 1000,3 hPa 0,0 l/m 0 min 0 min 0 W/m 19,3 km/h (3 Bft) 100,00 %
23.12.2022 17:24 12,0 C 11,1 C 9,4 C 99 % 1000,3 hPa 0,0 l/m 0 min 2 min 0 W/m 12,9 km/h (3 Bft) 100,00 %
23.12.2022 17:26 12,0 C 11,1 C 8,9 C 99 % 1000,3 hPa 0,0 l/m 0 min 0 min 0 W/m 25,7 km/h (4 Bft) 100,00 %
23.12.2022 17:28 12,1 C 11,1 C 9,4 C 99 % 1000,3 hPa 0,0 l/m 0 min 2 min 0 W/m 22,5 km/h (4 Bft) 100,00 %
23.12.2022 17:30 12,1 C 11,1 C 9,4 C 99 % 1000,4 hPa 0,0 l/m 0 min 0 min 0 W/m 25,7 km/h (4 Bft) 97,87 %
23.12.2022 17:32 12,1 C 11,7 C 9,4 C 99 % 1000,4 hPa 0,0 l/m 0 min 2 min 0 W/m 29,0 km/h (5 Bft) 100,00 %
23.12.2022 17:34 12,2 C 11,7 C 9,4 C 99 % 1000,5 hPa 0,0 l/m 0 min 2 min 0 W/m 16,1 km/h (3 Bft) 100,00 %
23.12.2022 17:36 12,2 C 11,7 C 9,4 C 99 % 1000,5 hPa 0,0 l/m 0 min 0 min 0 W/m 16,1 km/h (3 Bft) 100,00 %
23.12.2022 17:38 12,2 C 11,7 C 9,4 C 99 % 1000,6 hPa 0,0 l/m 0 min 0 min 0 W/m 25,7 km/h (4 Bft) 100,00 %
23.12.2022 17:40 12,2 C 11,7 C 9,4 C 99 % 1000,7 hPa 0,0 l/m 0 min 0 min 0 W/m 19,3 km/h (3 Bft) 100,00 %
23.12.2022 17:42 12,2 C 11,7 C 9,4 C 99 % 1000,7 hPa 0,0 l/m 0 min 0 min 0 W/m 25,7 km/h (4 Bft) 100,00 %
23.12.2022 17:44 12,2 C 11,7 C 9,4 C 99 % 1000,7 hPa 0,0 l/m 0 min 0 min 0 W/m 19,3 km/h (3 Bft) 97,87 %
23.12.2022 17:46 12,3 C 11,7 C 9,4 C 98 % 1000,7 hPa 0,0 l/m 0 min 2 min 0 W/m 29,0 km/h (5 Bft) 100,00 %
23.12.2022 17:48 12,3 C 11,7 C 9,4 C 98 % 1000,7 hPa 0,0 l/m 0 min 2 min 0 W/m 25,7 km/h (4 Bft) 97,87 %
23.12.2022 17:50 12,3 C 11,7 C 9,4 C 98 % 1000,8 hPa 0,0 l/m 0 min 2 min 0 W/m 25,7 km/h (4 Bft) 97,83 %
23.12.2022 17:52 12,3 C 11,7 C 9,4 C 98 % 1000,8 hPa 0,0 l/m 0 min 2 min 0 W/m 19,3 km/h (3 Bft) 97,87 %
23.12.2022 17:54 12,3 C 11,7 C 9,4 C 98 % 1000,8 hPa 0,0 l/m 0 min 2 min 0 W/m 32,2 km/h (5 Bft) 95,74 %
23.12.2022 17:56 12,3 C 11,7 C 9,4 C 98 % 1000,7 hPa 0,0 l/m 0 min 2 min 0 W/m 29,0 km/h (5 Bft) 97,87 %
23.12.2022 17:58 12,3 C 11,7 C 9,4 C 98 % 1000,9 hPa 0,0 l/m 0 min 2 min 0 W/m 22,5 km/h (4 Bft) 93,62 %
23.12.2022 18:00 12,3 C 11,1 C 9,4 C 97 % 1000,9 hPa 0,0 l/m 0 min 2 min 0 W/m 25,7 km/h (4 Bft) 97,87 %
23.12.2022 18:02 12,2 C 11,1 C 9,4 C 97 % 1000,9 hPa 0,0 l/m 0 min 2 min 0 W/m 19,3 km/h (3 Bft) 93,62 %
23.12.2022 18:04 12,2 C 11,1 C 9,4 C 97 % 1001,0 hPa 0,0 l/m 0 min 0 min 0 W/m 25,7 km/h (4 Bft) 95,65 %
23.12.2022 18:08 12,2 C 11,1 C 8,9 C 97 % 1001,0 hPa 0,0 l/m 0 min 0 min 0 W/m 22,5 km/h (4 Bft) 95,83 %
23.12.2022 18:10 12,2 C 11,1 C 9,4 C 97 % 1001,0 hPa 0,0 l/m 0 min 2 min 0 W/m 25,7 km/h (4 Bft) 93,62 %
23.12.2022 18:12 12,2 C 11,1 C 8,9 C 97 % 1001,2 hPa 0,0 l/m 0 min 0 min 0 W/m 19,3 km/h (3 Bft) 94,29 %
23.12.2022 18:14 12,1 C 11,1 C 8,9 C 97 % 1001,2 hPa 0,0 l/m 0 min 0 min 0 W/m 19,3 km/h (3 Bft) 95,74 %
23.12.2022 18:16 12,1 C 11,1 C 8,9 C 97 % 1001,3 hPa 0,0 l/m 0 min 0 min 0 W/m 19,3 km/h (3 Bft) 93,62 %
23.12.2022 18:18 12,2 C 11,1 C 8,9 C 97 % 1001,3 hPa 0,0 l/m 0 min 0 min 0 W/m 32,2 km/h (5 Bft) 95,74 %
23.12.2022 18:20 12,2 C 11,1 C 8,9 C 97 % 1001,3 hPa 0,0 l/m 0 min 2 min 0 W/m 16,1 km/h (3 Bft) 93,10 %
23.12.2022 18:22 12,2 C 11,1 C 8,9 C 96 % 1001,3 hPa 0,0 l/m 0 min 2 min 0 W/m 25,7 km/h (4 Bft) 94,29 %
23.12.2022 18:24 12,2 C 11,1 C 8,9 C 96 % 1001,4 hPa 0,0 l/m 0 min 0 min 0 W/m 16,1 km/h (3 Bft) 93,62 %
23.12.2022 18:26 12,1 C 11,1 C 8,9 C 96 % 1001,4 hPa 0,0 l/m 0 min 2 min 0 W/m 22,5 km/h (4 Bft) 96,61 %
23.12.2022 18:28 12,1 C 11,1 C 8,9 C 96 % 1001,4 hPa 0,0 l/m 0 min 2 min 0 W/m 29,0 km/h (5 Bft) 93,48 %
23.12.2022 18:30 12,1 C 11,1 C 8,9 C 96 % 1001,5 hPa 0,0 l/m 0 min 0 min 0 W/m 22,5 km/h (4 Bft) 91,67 %
23.12.2022 18:32 12,1 C 11,1 C 8,9 C 96 % 1001,5 hPa 0,0 l/m 0 min 0 min 0 W/m 29,0 km/h (5 Bft) 91,49 %
23.12.2022 18:34 12,1 C 11,1 C 8,9 C 96 % 1001,5 hPa 0,0 l/m 0 min 2 min 0 W/m 22,5 km/h (4 Bft) 91,49 %
23.12.2022 18:36 12,1 C 11,1 C 8,9 C 96 % 1001,5 hPa 0,0 l/m 0 min 0 min 0 W/m 19,3 km/h (3 Bft) 94,55 %
23.12.2022 18:38 12,1 C 11,1 C 8,9 C 96 % 1001,6 hPa 0,0 l/m 0 min 0 min 0 W/m 22,5 km/h (4 Bft) 90,00 %
23.12.2022 18:40 12,1 C 11,1 C 8,9 C 96 % 1001,6 hPa 0,0 l/m 0 min 0 min 0 W/m 19,3 km/h (3 Bft) 93,48 %
23.12.2022 18:42 12,1 C 11,1 C 8,9 C 96 % 1001,7 hPa 0,0 l/m 0 min 0 min 0 W/m 25,7 km/h (4 Bft) 94,44 %
23.12.2022 18:44 12,1 C 11,1 C 8,9 C 96 % 1001,7 hPa 0,0 l/m 0 min 0 min 0 W/m 25,7 km/h (4 Bft) 95,74 %
23.12.2022 18:46 12,1 C 11,1 C 8,9 C 96 % 1001,7 hPa 0,0 l/m 0 min 0 min 0 W/m 25,7 km/h (4 Bft) 93,62 %
23.12.2022 18:48 12,0 C 11,1 C 8,9 C 95 % 1001,6 hPa 0,0 l/m 0 min 0 min 0 W/m 19,3 km/h (3 Bft) 93,62 %
23.12.2022 18:50 12,0 C 11,1 C 8,9 C 95 % 1001,7 hPa 0,0 l/m 0 min 0 min 0 W/m 25,7 km/h (4 Bft) 95,74 %
23.12.2022 18:52 11,9 C 10,6 C 8,9 C 95 % 1001,7 hPa 0,0 l/m 0 min 0 min 0 W/m 19,3 km/h (3 Bft) 95,74 %
23.12.2022 18:54 11,9 C 10,6 C 8,9 C 95 % 1001,8 hPa 0,0 l/m 0 min 0 min 0 W/m 25,7 km/h (4 Bft) 97,83 %
23.12.2022 18:56 11,9 C 10,6 C 8,9 C 94 % 1001,8 hPa 0,0 l/m 0 min 0 min 0 W/m 29,0 km/h (5 Bft) 97,87 %
23.12.2022 18:58 11,8 C 10,6 C 8,9 C 94 % 1001,8 hPa 0,0 l/m 0 min 0 min 0 W/m 19,3 km/h (3 Bft) 95,74 %
23.12.2022 19:00 11,8 C 10,6 C 8,9 C 94 % 1001,9 hPa 0,0 l/m 0 min 0 min 0 W/m 25,7 km/h (4 Bft) 97,87 %
23.12.2022 19:02 11,8 C 10,6 C 8,3 C 94 % 1001,8 hPa 0,0 l/m 0 min 0 min 0 W/m 22,5 km/h (4 Bft) 97,87 %
23.12.2022 19:04 11,8 C 10,6 C 8,3 C 94 % 1001,9 hPa 0,0 l/m 0 min 0 min 0 W/m 25,7 km/h (4 Bft) 95,83 %
23.12.2022 19:06 11,8 C 10,6 C 8,3 C 94 % 1001,9 hPa 0,0 l/m 0 min 0 min 0 W/m 22,5 km/h (4 Bft) 100,00 %
23.12.2022 19:08 11,8 C 10,6 C 8,3 C 94 % 1001,9 hPa 0,0 l/m 0 min 0 min 0 W/m 16,1 km/h (3 Bft) 100,00 %
23.12.2022 19:10 11,7 C 10,6 C 8,3 C 94 % 1001,9 hPa 0,0 l/m 0 min 0 min 0 W/m 16,1 km/h (3 Bft) 97,87 %
23.12.2022 19:12 11,7 C 10,6 C 8,3 C 93 % 1002,0 hPa 0,0 l/m 0 min 0 min 0 W/m 12,9 km/h (3 Bft) 100,00 %
23.12.2022 19:14 11,7 C 10,6 C 8,3 C 93 % 1002,0 hPa 0,0 l/m 0 min 0 min 0 W/m 22,5 km/h (4 Bft) 100,00 %
23.12.2022 19:16 11,7 C 10,6 C 8,3 C 93 % 1002,0 hPa 0,0 l/m 0 min 0 min 0 W/m 25,7 km/h (4 Bft) 97,87 %
23.12.2022 19:18 11,7 C 10,6 C 8,3 C 93 % 1002,1 hPa 0,0 l/m 0 min 0 min 0 W/m 16,1 km/h (3 Bft) 100,00 %
23.12.2022 19:20 11,7 C 10,6 C 8,3 C 93 % 1002,2 hPa 0,0 l/m 0 min 0 min 0 W/m 35,4 km/h (5 Bft) 100,00 %
23.12.2022 19:22 11,7 C 10,6 C 8,3 C 93 % 1002,1 hPa 0,0 l/m 0 min 0 min 0 W/m 19,3 km/h (3 Bft) 97,87 %
23.12.2022 19:24 11,7 C 10,6 C 8,3 C 93 % 1002,2 hPa 0,0 l/m 0 min 0 min 0 W/m 25,7 km/h (4 Bft) 100,00 %
23.12.2022 19:26 11,7 C 10,6 C 8,3 C 93 % 1002,2 hPa 0,0 l/m 0 min 0 min 0 W/m 12,9 km/h (3 Bft) 100,00 %
23.12.2022 19:28 11,7 C 10,6 C 8,3 C 93 % 1002,2 hPa 0,0 l/m 0 min 0 min 0 W/m 16,1 km/h (3 Bft) 97,87 %
23.12.2022 19:30 11,7 C 10,6 C 8,3 C 92 % 1002,2 hPa 0,0 l/m 0 min 0 min 0 W/m 16,1 km/h (3 Bft) 100,00 %
23.12.2022 19:32 11,7 C 10,6 C 8,3 C 92 % 1002,2 hPa 0,0 l/m 0 min 0 min 0 W/m 16,1 km/h (3 Bft) 100,00 %
23.12.2022 19:34 11,7 C 10,6 C 8,3 C 92 % 1002,2 hPa 0,0 l/m 0 min 0 min 0 W/m 16,1 km/h (3 Bft) 100,00 %
23.12.2022 19:36 11,7 C 11,1 C 8,3 C 92 % 1002,3 hPa 0,0 l/m 0 min 0 min 0 W/m 22,5 km/h (4 Bft) 97,87 %
23.12.2022 19:38 11,8 C 11,1 C 8,3 C 92 % 1002,4 hPa 0,0 l/m 0 min 0 min 0 W/m 25,7 km/h (4 Bft) 100,00 %
23.12.2022 19:40 11,8 C 11,1 C 8,3 C 92 % 1002,4 hPa 0,0 l/m 0 min 0 min 0 W/m 19,3 km/h (3 Bft) 100,00 %
23.12.2022 19:42 11,7 C 11,1 C 8,3 C 92 % 1002,4 hPa 0,0 l/m 0 min 0 min 0 W/m 19,3 km/h (3 Bft) 100,00 %
23.12.2022 19:44 11,7 C 10,6 C 8,3 C 91 % 1002,5 hPa 0,0 l/m 0 min 0 min 0 W/m 12,9 km/h (3 Bft) 100,00 %
23.12.2022 19:46 11,7 C 11,1 C 8,3 C 92 % 1002,5 hPa 0,0 l/m 0 min 0 min 0 W/m 19,3 km/h (3 Bft) 97,83 %
23.12.2022 19:48 11,7 C 11,1 C 8,3 C 91 % 1002,5 hPa 0,0 l/m 0 min 0 min 0 W/m 16,1 km/h (3 Bft) 97,87 %
23.12.2022 19:50 11,8 C 11,1 C 8,3 C 92 % 1002,6 hPa 0,0 l/m 0 min 0 min 0 W/m 22,5 km/h (4 Bft) 95,74 %
23.12.2022 19:52 11,8 C 11,1 C 8,3 C 92 % 1002,7 hPa 0,0 l/m 0 min 0 min 0 W/m 16,1 km/h (3 Bft) 93,62 %
23.12.2022 19:54 11,8 C 11,1 C 8,3 C 92 % 1002,7 hPa 0,0 l/m 0 min 2 min 0 W/m 22,5 km/h (4 Bft) 97,87 %
23.12.2022 19:56 11,8 C 11,1 C 8,3 C 92 % 1002,7 hPa 0,0 l/m 0 min 2 min 0 W/m 22,5 km/h (4 Bft) 100,00 %
23.12.2022 19:58 11,7 C 10,6 C 8,3 C 92 % 1002,6 hPa 0,0 l/m 0 min 2 min 0 W/m 22,5 km/h (4 Bft) 100,00 %
23.12.2022 20:00 11,7 C 10,6 C 8,3 C 92 % 1002,7 hPa 0,0 l/m 0 min 2 min 0 W/m 35,4 km/h (5 Bft) 100,00 %
23.12.2022 20:02 11,6 C 10,6 C 8,3 C 92 % 1002,7 hPa 0,0 l/m 0 min 2 min 0 W/m 22,5 km/h (4 Bft) 100,00 %
23.12.2022 20:04 11,6 C 10,6 C 8,3 C 92 % 1002,6 hPa 0,0 l/m 0 min 0 min 0 W/m 16,1 km/h (3 Bft) 100,00 %
23.12.2022 20:06 11,6 C 10,6 C 8,3 C 93 % 1002,6 hPa 0,0 l/m 0 min 0 min 0 W/m 19,3 km/h (3 Bft) 97,87 %
23.12.2022 20:08 11,5 C 10,6 C 8,3 C 93 % 1002,7 hPa 0,0 l/m 0 min 0 min 0 W/m 19,3 km/h (3 Bft) 100,00 %
23.12.2022 20:10 11,4 C 10,6 C 8,3 C 93 % 1002,7 hPa 0,0 l/m 0 min 0 min 0 W/m 22,5 km/h (4 Bft) 100,00 %
23.12.2022 20:12 11,4 C 10,6 C 8,3 C 93 % 1002,7 hPa 0,0 l/m 0 min 0 min 0 W/m 19,3 km/h (3 Bft) 100,00 %
23.12.2022 20:14 11,4 C 10,6 C 8,3 C 93 % 1002,7 hPa 0,0 l/m 0 min 2 min 0 W/m 16,1 km/h (3 Bft) 100,00 %
23.12.2022 20:16 11,4 C 10,6 C 8,3 C 93 % 1002,7 hPa 0,0 l/m 0 min 0 min 0 W/m 22,5 km/h (4 Bft) 95,74 %
23.12.2022 20:18 11,4 C 10,6 C 7,8 C 93 % 1002,6 hPa 0,0 l/m 0 min 0 min 0 W/m 22,5 km/h (4 Bft) 97,87 %
23.12.2022 20:20 11,4 C 10,6 C 7,8 C 93 % 1002,6 hPa 0,0 l/m 0 min 2 min 0 W/m 12,9 km/h (3 Bft) 100,00 %
23.12.2022 20:22 11,4 C 10,6 C 7,8 C 93 % 1002,7 hPa 0,0 l/m 0 min 2 min 0 W/m 16,1 km/h (3 Bft) 97,87 %
23.12.2022 20:24 11,4 C 10,6 C 7,8 C 93 % 1002,7 hPa 0,0 l/m 0 min 0 min 0 W/m 19,3 km/h (3 Bft) 97,83 %
23.12.2022 20:26 11,4 C 10,6 C 7,8 C 92 % 1002,7 hPa 0,0 l/m 0 min 0 min 0 W/m 16,1 km/h (3 Bft) 95,74 %
23.12.2022 20:28 11,4 C 10,6 C 7,8 C 92 % 1002,6 hPa 0,0 l/m 0 min 0 min 0 W/m 19,3 km/h (3 Bft) 97,87 %
23.12.2022 20:30 11,4 C 10,6 C 8,3 C 92 % 1002,7 hPa 0,0 l/m 0 min 0 min 0 W/m 19,3 km/h (3 Bft) 95,74 %
23.12.2022 20:32 11,4 C 10,6 C 8,3 C 92 % 1002,7 hPa 0,0 l/m 0 min 0 min 0 W/m 22,5 km/h (4 Bft) 95,74 %
23.12.2022 20:34 11,4 C 10,6 C 8,3 C 92 % 1002,7 hPa 0,0 l/m 0 min 0 min 0 W/m 16,1 km/h (3 Bft) 97,87 %
23.12.2022 20:36 11,4 C 10,6 C 8,3 C 92 % 1002,7 hPa 0,0 l/m 0 min 0 min 0 W/m 19,3 km/h (3 Bft) 93,48 %
23.12.2022 20:38 11,4 C 10,6 C 8,3 C 92 % 1002,7 hPa 0,0 l/m 0 min 0 min 0 W/m 22,5 km/h (4 Bft) 95,74 %
23.12.2022 20:40 11,4 C 10,6 C 8,3 C 92 % 1002,8 hPa 0,0 l/m 0 min 0 min 0 W/m 19,3 km/h (3 Bft) 93,62 %
23.12.2022 20:42 11,4 C 10,6 C 8,3 C 92 % 1002,9 hPa 0,0 l/m 0 min 0 min 0 W/m 19,3 km/h (3 Bft) 93,62 %
23.12.2022 20:44 11,4 C 10,6 C 8,3 C 91 % 1002,8 hPa 0,0 l/m 0 min 0 min 0 W/m 19,3 km/h (3 Bft) 95,74 %
23.12.2022 20:46 11,4 C 10,6 C 8,3 C 91 % 1002,9 hPa 0,0 l/m 0 min 0 min 0 W/m 16,1 km/h (3 Bft) 95,74 %
23.12.2022 20:48 11,3 C 10,6 C 8,3 C 91 % 1002,9 hPa 0,0 l/m 0 min 0 min 0 W/m 25,7 km/h (4 Bft) 95,74 %
23.12.2022 20:50 11,3 C 10,6 C 8,3 C 91 % 1003,0 hPa 0,0 l/m 0 min 0 min 0 W/m 16,1 km/h (3 Bft) 93,48 %
23.12.2022 20:52 11,3 C 10,6 C 8,3 C 91 % 1003,1 hPa 0,0 l/m 0 min 0 min 0 W/m 19,3 km/h (3 Bft) 93,62 %
23.12.2022 20:54 11,3 C 10,6 C 8,3 C 91 % 1003,1 hPa 0,0 l/m 0 min 0 min 0 W/m 25,7 km/h (4 Bft) 93,62 %
23.12.2022 20:56 11,2 C 10,6 C 7,8 C 91 % 1003,2 hPa 0,0 l/m 0 min 0 min 0 W/m 16,1 km/h (3 Bft) 91,49 %
23.12.2022 20:58 11,2 C 10,6 C 7,8 C 91 % 1003,2 hPa 0,0 l/m 0 min 0 min 0 W/m 32,2 km/h (5 Bft) 91,49 %
23.12.2022 21:00 11,2 C 10,6 C 8,3 C 91 % 1003,2 hPa 0,0 l/m 0 min 0 min 0 W/m 16,1 km/h (3 Bft) 95,74 %
23.12.2022 21:02 11,2 C 10,6 C 8,3 C 91 % 1003,3 hPa 0,0 l/m 0 min 0 min 0 W/m 22,5 km/h (4 Bft) 94,74 %
23.12.2022 21:04 11,2 C 10,6 C 8,3 C 91 % 1003,3 hPa 0,0 l/m 0 min 0 min 0 W/m 22,5 km/h (4 Bft) 93,62 %
23.12.2022 21:06 11,2 C 10,6 C 8,3 C 91 % 1003,4 hPa 0,0 l/m 0 min 0 min 0 W/m 32,2 km/h (5 Bft) 95,74 %
23.12.2022 21:08 11,2 C 10,6 C 8,3 C 91 % 1003,4 hPa 0,0 l/m 0 min 0 min 0 W/m 16,1 km/h (3 Bft) 95,74 %
23.12.2022 21:10 11,2 C 10,6 C 8,3 C 91 % 1003,5 hPa 0,0 l/m 0 min 0 min 0 W/m 29,0 km/h (5 Bft) 95,74 %
23.12.2022 21:12 11,2 C 10,6 C 8,3 C 92 % 1003,6 hPa 0,0 l/m 0 min 0 min 0 W/m 38,6 km/h (5 Bft) 95,65 %
23.12.2022 21:14 11,2 C 10,6 C 8,3 C 92 % 1003,5 hPa 0,0 l/m 0 min 0 min 0 W/m 25,7 km/h (4 Bft) 95,74 %
23.12.2022 21:16 11,2 C 10,6 C 8,3 C 92 % 1003,5 hPa 0,0 l/m 0 min 0 min 0 W/m 19,3 km/h (3 Bft) 95,74 %
23.12.2022 21:18 11,2 C 10,0 C 8,3 C 92 % 1003,6 hPa 0,0 l/m 0 min 0 min 0 W/m 12,9 km/h (3 Bft) 97,87 %
23.12.2022 21:20 11,2 C 10,6 C 8,3 C 92 % 1003,5 hPa 0,0 l/m 0 min 0 min 0 W/m 25,7 km/h (4 Bft) 95,74 %
23.12.2022 21:22 11,2 C 10,6 C 8,3 C 92 % 1003,7 hPa 0,0 l/m 0 min 2 min 0 W/m 25,7 km/h (4 Bft) 97,87 %
23.12.2022 21:24 11,2 C 10,6 C 8,3 C 92 % 1003,6 hPa 0,0 l/m 0 min 2 min 0 W/m 16,1 km/h (3 Bft) 97,87 %
23.12.2022 21:26 11,2 C 10,6 C 8,3 C 92 % 1003,6 hPa 0,0 l/m 0 min 2 min 0 W/m 16,1 km/h (3 Bft) 91,30 %
23.12.2022 21:28 11,2 C 10,6 C 8,3 C 93 % 1003,8 hPa 0,0 l/m 0 min 2 min 0 W/m 29,0 km/h (5 Bft) 97,87 %
23.12.2022 21:30 11,2 C 10,6 C 8,3 C 93 % 1003,8 hPa 0,2 l/m 0 min 2 min 0 W/m 25,7 km/h (4 Bft) 97,87 %
23.12.2022 21:32 11,2 C 10,6 C 8,3 C 93 % 1003,8 hPa 0,0 l/m 0 min 2 min 0 W/m 25,7 km/h (4 Bft) 97,87 %
23.12.2022 21:34 11,2 C 10,6 C 8,3 C 93 % 1003,9 hPa 0,0 l/m 0 min 0 min 0 W/m 22,5 km/h (4 Bft) 93,62 %
23.12.2022 21:36 11,1 C 10,6 C 7,8 C 93 % 1003,9 hPa 0,0 l/m 0 min 2 min 0 W/m 22,5 km/h (4 Bft) 97,87 %
23.12.2022 21:38 11,1 C 10,6 C 7,8 C 93 % 1004,0 hPa 0,0 l/m 0 min 2 min 0 W/m 19,3 km/h (3 Bft) 97,83 %
23.12.2022 21:40 11,1 C 10,6 C 7,8 C 93 % 1004,0 hPa 0,0 l/m 0 min 2 min 0 W/m 25,7 km/h (4 Bft) 97,87 %
23.12.2022 21:42 11,1 C 10,6 C 7,8 C 93 % 1004,0 hPa 0,0 l/m 0 min 2 min 0 W/m 16,1 km/h (3 Bft) 100,00 %
23.12.2022 21:44 11,1 C 10,6 C 7,8 C 93 % 1004,1 hPa 0,0 l/m 0 min 2 min 0 W/m 19,3 km/h (3 Bft) 100,00 %
23.12.2022 21:46 11,1 C 10,6 C 7,8 C 93 % 1004,1 hPa 0,0 l/m 0 min 2 min 0 W/m 19,3 km/h (3 Bft) 100,00 %
23.12.2022 21:48 11,1 C 10,6 C 7,8 C 93 % 1004,1 hPa 0,0 l/m 0 min 0 min 0 W/m 12,9 km/h (3 Bft) 97,87 %
23.12.2022 21:50 11,1 C 10,6 C 7,8 C 93 % 1004,1 hPa 0,0 l/m 0 min 0 min 0 W/m 16,1 km/h (3 Bft) 97,83 %
23.12.2022 21:52 11,1 C 10,6 C 8,3 C 93 % 1004,3 hPa 0,0 l/m 0 min 0 min 0 W/m 22,5 km/h (4 Bft) 100,00 %
23.12.2022 21:54 11,1 C 10,6 C 8,3 C 93 % 1004,3 hPa 0,0 l/m 0 min 0 min 0 W/m 22,5 km/h (4 Bft) 97,87 %
23.12.2022 21:56 11,1 C 10,6 C 8,3 C 93 % 1004,4 hPa 0,0 l/m 0 min 0 min 0 W/m 38,6 km/h (5 Bft) 97,87 %
23.12.2022 21:58 11,1 C 10,6 C 8,3 C 93 % 1004,3 hPa 0,0 l/m 0 min 0 min 0 W/m 22,5 km/h (4 Bft) 100,00 %
23.12.2022 22:00 11,1 C 10,6 C 8,3 C 93 % 1004,4 hPa 0,0 l/m 0 min 0 min 0 W/m 19,3 km/h (3 Bft) 100,00 %
23.12.2022 22:02 11,1 C 10,6 C 8,3 C 93 % 1004,3 hPa 0,0 l/m 0 min 0 min 0 W/m 19,3 km/h (3 Bft) 100,00 %
23.12.2022 22:04 11,1 C 10,6 C 8,3 C 93 % 1004,4 hPa 0,0 l/m 0 min 0 min 0 W/m 16,1 km/h (3 Bft) 100,00 %
23.12.2022 22:06 11,1 C 10,6 C 8,3 C 93 % 1004,4 hPa 0,0 l/m 0 min 0 min 0 W/m 22,5 km/h (4 Bft) 100,00 %
23.12.2022 22:08 11,1 C 10,6 C 8,3 C 93 % 1004,5 hPa 0,0 l/m 0 min 0 min 0 W/m 19,3 km/h (3 Bft) 100,00 %
23.12.2022 22:10 11,1 C 10,6 C 8,3 C 93 % 1004,6 hPa 0,0 l/m 0 min 0 min 0 W/m 12,9 km/h (3 Bft) 97,87 %
23.12.2022 22:12 11,1 C 10,6 C 8,3 C 93 % 1004,5 hPa 0,0 l/m 0 min 0 min 0 W/m 9,7 km/h (2 Bft) 100,00 %
23.12.2022 22:14 11,1 C 10,6 C 8,3 C 93 % 1004,6 hPa 0,0 l/m 0 min 0 min 0 W/m 29,0 km/h (5 Bft) 100,00 %
23.12.2022 22:16 11,1 C 10,6 C 8,3 C 93 % 1004,7 hPa 0,0 l/m 0 min 0 min 0 W/m 22,5 km/h (4 Bft) 100,00 %
23.12.2022 22:18 11,2 C 10,6 C 8,3 C 93 % 1004,7 hPa 0,0 l/m 0 min 2 min 0 W/m 25,7 km/h (4 Bft) 100,00 %
23.12.2022 22:20 11,2 C 10,6 C 8,3 C 93 % 1004,9 hPa 0,0 l/m 0 min 2 min 0 W/m 19,3 km/h (3 Bft) 95,74 %
23.12.2022 22:22 11,2 C 10,6 C 8,3 C 92 % 1004,6 hPa 0,0 l/m 0 min 2 min 0 W/m 29,0 km/h (5 Bft) 100,00 %
23.12.2022 22:24 11,2 C 10,6 C 8,3 C 92 % 1004,8 hPa 0,0 l/m 0 min 2 min 0 W/m 29,0 km/h (5 Bft) 97,87 %
23.12.2022 22:26 11,2 C 10,6 C 8,3 C 93 % 1004,8 hPa 0,0 l/m 0 min 2 min 0 W/m 29,0 km/h (5 Bft) 97,87 %
23.12.2022 22:28 11,2 C 10,6 C 8,3 C 93 % 1004,8 hPa 0,0 l/m 0 min 2 min 0 W/m 19,3 km/h (3 Bft) 95,74 %
23.12.2022 22:30 11,1 C 10,6 C 8,3 C 93 % 1004,8 hPa 0,0 l/m 0 min 0 min 0 W/m 25,7 km/h (4 Bft) 97,83 %
23.12.2022 22:32 11,1 C 10,6 C 8,3 C 92 % 1004,8 hPa 0,0 l/m 0 min 0 min 0 W/m 16,1 km/h (3 Bft) 97,87 %
23.12.2022 22:34 11,1 C 10,0 C 8,3 C 92 % 1004,8 hPa 0,0 l/m 0 min 0 min 0 W/m 22,5 km/h (4 Bft) 97,87 %
23.12.2022 22:36 11,1 C 10,0 C 8,3 C 93 % 1004,9 hPa 0,0 l/m 0 min 0 min 0 W/m 22,5 km/h (4 Bft) 97,87 %
23.12.2022 22:38 11,1 C 10,0 C 8,3 C 93 % 1004,8 hPa 0,0 l/m 0 min 0 min 0 W/m 25,7 km/h (4 Bft) 97,87 %
23.12.2022 22:40 11,0 C 10,0 C 8,3 C 93 % 1004,9 hPa 0,0 l/m 0 min 0 min 0 W/m 22,5 km/h (4 Bft) 97,87 %
23.12.2022 22:42 11,0 C 10,0 C 8,3 C 93 % 1005,0 hPa 0,0 l/m 0 min 0 min 0 W/m 16,1 km/h (3 Bft) 95,74 %
23.12.2022 22:44 10,9 C 10,0 C 8,3 C 93 % 1005,1 hPa 0,0 l/m 0 min 0 min 0 W/m 25,7 km/h (4 Bft) 96,30 %
23.12.2022 22:46 10,9 C 10,0 C 8,3 C 93 % 1005,1 hPa 0,0 l/m 0 min 0 min 0 W/m 19,3 km/h (3 Bft) 100,00 %
23.12.2022 22:48 10,9 C 10,0 C 8,3 C 93 % 1005,2 hPa 0,0 l/m 0 min 0 min 0 W/m 19,3 km/h (3 Bft) 94,83 %
23.12.2022 22:50 10,9 C 10,6 C 8,3 C 93 % 1005,5 hPa 0,0 l/m 0 min 0 min 0 W/m 25,7 km/h (4 Bft) 95,74 %
23.12.2022 22:52 10,9 C 10,6 C 8,3 C 93 % 1005,3 hPa 0,0 l/m 0 min 0 min 0 W/m 25,7 km/h (4 Bft) 94,29 %
23.12.2022 22:54 10,9 C 10,6 C 8,3 C 93 % 1005,4 hPa 0,0 l/m 0 min 0 min 0 W/m 16,1 km/h (3 Bft) 97,87 %
23.12.2022 22:56 10,9 C 10,0 C 8,3 C 93 % 1005,5 hPa 0,0 l/m 0 min 0 min 0 W/m 25,7 km/h (4 Bft) 100,00 %
23.12.2022 22:58 10,9 C 10,0 C 8,3 C 93 % 1005,4 hPa 0,0 l/m 0 min 0 min 0 W/m 16,1 km/h (3 Bft) 100,00 %
23.12.2022 23:00 10,9 C 10,0 C 8,3 C 93 % 1005,4 hPa 0,0 l/m 0 min 0 min 0 W/m 19,3 km/h (3 Bft) 100,00 %
23.12.2022 23:02 10,9 C 10,6 C 8,3 C 93 % 1005,4 hPa 0,0 l/m 0 min 0 min 0 W/m 19,3 km/h (3 Bft) 97,83 %
23.12.2022 23:04 10,9 C 10,0 C 8,3 C 93 % 1005,3 hPa 0,0 l/m 0 min 0 min 0 W/m 19,3 km/h (3 Bft) 100,00 %
23.12.2022 23:06 10,9 C 10,0 C 8,3 C 93 % 1005,4 hPa 0,0 l/m 0 min 0 min 0 W/m 25,7 km/h (4 Bft) 98,31 %
23.12.2022 23:08 10,9 C 10,0 C 8,3 C 93 % 1005,4 hPa 0,0 l/m 0 min 0 min 0 W/m 16,1 km/h (3 Bft) 97,87 %
23.12.2022 23:10 10,9 C 10,0 C 8,3 C 93 % 1005,3 hPa 0,0 l/m 0 min 0 min 0 W/m 16,1 km/h (3 Bft) 97,14 %
23.12.2022 23:12 10,9 C 10,0 C 8,3 C 93 % 1005,4 hPa 0,0 l/m 0 min 0 min 0 W/m 22,5 km/h (4 Bft) 97,87 %
23.12.2022 23:14 10,9 C 10,0 C 8,3 C 93 % 1005,5 hPa 0,0 l/m 0 min 0 min 0 W/m 19,3 km/h (3 Bft) 97,87 %
23.12.2022 23:16 10,9 C 10,0 C 8,3 C 93 % 1005,4 hPa 0,0 l/m 0 min 0 min 0 W/m 16,1 km/h (3 Bft) 97,83 %
23.12.2022 23:18 10,9 C 10,0 C 8,3 C 93 % 1005,6 hPa 0,0 l/m 0 min 0 min 0 W/m 12,9 km/h (3 Bft) 95,74 %
23.12.2022 23:20 10,9 C 10,6 C 8,3 C 93 % 1005,7 hPa 0,0 l/m 0 min 0 min 0 W/m 22,5 km/h (4 Bft) 91,49 %
23.12.2022 23:22 10,9 C 10,0 C 8,3 C 93 % 1005,6 hPa 0,0 l/m 0 min 0 min 0 W/m 16,1 km/h (3 Bft) 97,87 %
23.12.2022 23:24 10,9 C 10,0 C 8,3 C 93 % 1005,7 hPa 0,0 l/m 0 min 0 min 0 W/m 16,1 km/h (3 Bft) 97,87 %
23.12.2022 23:26 10,9 C 10,0 C 8,3 C 93 % 1005,8 hPa 0,0 l/m 0 min 0 min 0 W/m 35,4 km/h (5 Bft) 97,87 %
23.12.2022 23:28 10,9 C 10,0 C 7,8 C 93 % 1005,8 hPa 0,0 l/m 0 min 2 min 0 W/m 19,3 km/h (3 Bft) 97,87 %
23.12.2022 23:30 10,9 C 10,0 C 7,8 C 93 % 1006,0 hPa 0,0 l/m 0 min 2 min 0 W/m 19,3 km/h (3 Bft) 97,83 %
23.12.2022 23:32 10,9 C 10,0 C 7,8 C 93 % 1006,0 hPa 0,0 l/m 0 min 2 min 0 W/m 25,7 km/h (4 Bft) 97,87 %
23.12.2022 23:34 10,9 C 10,0 C 8,3 C 92 % 1006,1 hPa 0,0 l/m 0 min 0 min 0 W/m 25,7 km/h (4 Bft) 97,87 %
23.12.2022 23:36 10,9 C 10,6 C 7,8 C 92 % 1006,1 hPa 0,0 l/m 0 min 0 min 0 W/m 22,5 km/h (4 Bft) 97,87 %
23.12.2022 23:38 10,9 C 10,0 C 8,3 C 92 % 1006,2 hPa 0,0 l/m 0 min 0 min 0 W/m 19,3 km/h (3 Bft) 95,74 %
23.12.2022 23:40 10,9 C 10,6 C 8,3 C 92 % 1006,1 hPa 0,0 l/m 0 min 0 min 0 W/m 22,5 km/h (4 Bft) 95,74 %
23.12.2022 23:42 10,9 C 10,0 C 8,3 C 92 % 1006,2 hPa 0,0 l/m 0 min 0 min 0 W/m 29,0 km/h (5 Bft) 91,49 %
23.12.2022 23:44 10,9 C 10,6 C 8,3 C 92 % 1006,3 hPa 0,0 l/m 0 min 0 min 0 W/m 22,5 km/h (4 Bft) 95,65 %
23.12.2022 23:46 10,9 C 10,6 C 8,3 C 91 % 1006,2 hPa 0,0 l/m 0 min 0 min 0 W/m 16,1 km/h (3 Bft) 95,74 %
23.12.2022 23:48 10,9 C 10,6 C 8,3 C 91 % 1006,3 hPa 0,0 l/m 0 min 0 min 0 W/m 12,9 km/h (3 Bft) 95,74 %
23.12.2022 23:50 10,9 C 10,6 C 8,3 C 91 % 1006,3 hPa 0,0 l/m 0 min 0 min 0 W/m 19,3 km/h (3 Bft) 97,87 %
23.12.2022 23:52 10,9 C 10,6 C 8,3 C 91 % 1006,4 hPa 0,0 l/m 0 min 0 min 0 W/m 25,7 km/h (4 Bft) 97,87 %
23.12.2022 23:54 10,9 C 10,6 C 8,3 C 91 % 1006,3 hPa 0,0 l/m 0 min 0 min 0 W/m 19,3 km/h (3 Bft) 95,74 %
23.12.2022 23:56 10,9 C 10,6 C 8,3 C 91 % 1006,4 hPa 0,0 l/m 0 min 0 min 0 W/m 22,5 km/h (4 Bft) 97,83 %
23.12.2022 23:58 10,9 C 10,6 C 8,3 C 91 % 1006,3 hPa 0,0 l/m 0 min 0 min 0 W/m 16,1 km/h (3 Bft) 97,87 %
_ Min-Zeit 14:36 13:50 00:24 19:44 16:06 - - - - 10:16 04:32
Minimum _ 9,1 C 8,3 C 6,7 C 91 % 999,8 hPa - - - - 0,0 km/h (0 Bft) 10,64 %
_ Max-Zeit 17:46 17:32 17:24 16:42 08:28 14:32 00:00 04:24 11:36 21:12 00:12
Maximum _ 12,3 C 11,7 C 9,4 C 100 % 1006,9 hPa 0,4 l/m 0 min 2 min 85 W/m 38,6 km/h
S-SO (5 Bft)
100,00 %
Durchschnitt _ 10,1 C 9,5 C 7,6 C 97 % 1004,0 hPa #9,0 l/m #0 min. #4:52 h 26 W/m 13,8 km/h (3 Bft) 94,39 %
© 2022 W. Hausmann